N4ASP-13 Weather Reports


time (UTC)temp
C
wind
direction
speed
KPH
gust
KPH
rain 1hr
cm
rain 24hr
cm
rain mn
cm
humidity
%
barometer
mb
20260506023639 17 144 4.8 14.5 0.00 0.00 0.00 60 1014.0
20260506023540 17 161 4.8 12.9 0.00 0.00 0.00 59 1014.0
20260506023439 17 166 4.8 12.9 0.00 0.00 0.00 59 1014.1
20260506023339 17 148 4.8 11.3 0.00 0.00 0.00 60 1014.1
20260506023240 17 123 4.8 11.3 0.00 0.00 0.00 59 1014.1
20260506023138 17 123 4.8 11.3 0.00 0.00 0.00 59 1014.1
20260506023038 17 154 4.8 11.3 0.00 0.00 0.00 59 1014.2
20260506022939 17 121 4.8 11.3 0.00 0.00 0.00 59 1014.2
20260506022839 17 155 4.8 11.3 0.00 0.00 0.00 59 1014.3
20260506022738 17 171 4.8 14.5 0.00 0.00 0.00 59 1014.3
20260506022640 17 145 4.8 17.7 0.00 0.00 0.00 59 1014.3
20260506022539 17 144 6.4 17.7 0.00 0.00 0.00 59 1014.3
20260506022440 17 162 6.4 17.7 0.00 0.00 0.00 59 1014.1
20260506022338 17 143 6.4 17.7 0.00 0.00 0.00 59 1014.2
20260506022239 17 144 6.4 17.7 0.00 0.00 0.00 59 1014.1
20260506022140 17 142 6.4 17.7 0.00 0.00 0.00 59 1014.1
20260506022038 17 142 6.4 17.7 0.00 0.00 0.00 59 1014.1
20260506021940 17 116 6.4 17.7 0.00 0.00 0.00 59 1014.1
20260506021838 17 182 6.4 17.7 0.00 0.00 0.00 59 1014.1
20260506021740 17 136 6.4 16.1 0.00 0.00 0.00 59 1014.3
20260506021635 17 162 6.4 14.5 0.00 0.00 0.00 59 1014.2
20260506021534 17 101 6.4 14.5 0.00 0.00 0.00 59 1014.2
20260506021434 17 159 6.4 14.5 0.00 0.00 0.00 59 1014.3
20260506021335 17 118 6.4 14.5 0.00 0.00 0.00 59 1014.2
20260506021235 17 144 6.4 14.5 0.00 0.00 0.00 59 1014.2
20260506021135 17 119 6.4 14.5 0.00 0.00 0.00 59 1014.2
20260506021034 17 294 6.4 14.5 0.00 0.00 0.00 59 1014.2
20260506020934 17 130 6.4 14.5 0.00 0.00 0.00 59 1014.2
20260506020834 17 124 6.4 14.5 0.00 0.00 0.00 59 1014.2
20260506020735 17 111 6.4 14.5 0.00 0.00 0.00 59 1014.2
20260506020635 17 153 6.4 14.5 0.00 0.00 0.00 59 1014.2
20260506020534 17 185 6.4 17.7 0.00 0.00 0.00 59 1014.1
20260506020434 17 192 6.4 17.7 0.00 0.00 0.00 59 1014.1
20260506020335 17 126 6.4 17.7 0.00 0.00 0.00 59 1014.1
20260506020234 17 118 8.0 19.3 0.00 0.00 0.00 59 1014.1
20260506020134 17 120 8.0 19.3 0.00 0.00 0.00 59 1014.1
20260506020034 17 185 8.0 19.3 0.00 0.00 0.00 59 1014.1
20260506015934 17 185 8.0 19.3 0.00 0.00 0.00 59 1014.1
20260506015834 17 133 8.0 19.3 0.00 0.00 0.00 59 1014.1
20260506015734 17 107 8.0 19.3 0.00 0.00 0.00 59 1014.1
20260506015635 17 144 6.4 19.3 0.00 0.00 0.00 59 1014.1
20260506015535 17 140 6.4 19.3 0.00 0.00 0.00 59 1014.0
20260506015434 17 153 6.4 19.3 0.00 0.00 0.00 59 1014.1
20260506015334 17 158 6.4 19.3 0.00 0.00 0.00 59 1014.1
20260506015235 17 126 6.4 19.3 0.00 0.00 0.00 59 1014.1
20260506015136 17 115 6.4 19.3 0.00 0.00 0.00 59 1014.2
20260506015035 17 170 6.4 19.3 0.00 0.00 0.00 59 1014.2
20260506014934 17 150 6.4 19.3 0.00 0.00 0.00 59 1014.1
20260506014835 17 221 6.4 14.5 0.00 0.00 0.00 59 1014.2
20260506014734 17 171 6.4 14.5 0.00 0.00 0.00 59 1014.1
20260506014634 17 152 6.4 19.3 0.00 0.00 0.00 59 1014.1
20260506014534 17 150 6.4 19.3 0.00 0.00 0.00 59 1014.1
20260506014436 17 156 6.4 19.3 0.00 0.00 0.00 59 1014.1
20260506014332 17 151 6.4 19.3 0.00 0.00 0.00 59 1014.2
20260506014232 17 162 6.4 19.3 0.00 0.00 0.00 58 1014.1
20260506014130 17 145 6.4 19.3 0.00 0.00 0.00 58 1014.1
20260506014030 17 168 6.4 19.3 0.00 0.00 0.00 58 1014.2
20260506013930 17 163 6.4 19.3 0.00 0.00 0.00 58 1014.2
20260506013830 17 172 6.4 19.3 0.00 0.00 0.00 58 1014.1
20260506013731 17 148 6.4 19.3 0.00 0.00 0.00 58 1014.2
20260506013631 17 222 6.4 17.7 0.00 0.00 0.00 58 1014.2
20260506013531 17 159 6.4 17.7 0.00 0.00 0.00 58 1014.2
20260506013430 17 180 6.4 17.7 0.00 0.00 0.00 58 1014.2
20260506013331 17 134 6.4 17.7 0.00 0.00 0.00 58 1014.1
20260506013230 17 148 6.4 17.7 0.00 0.00 0.00 58 1014.2
20260506013130 18 166 6.4 16.1 0.00 0.00 0.00 58 1014.3
20260506013031 18 113 6.4 16.1 0.00 0.00 0.00 58 1014.1
20260506012930 18 159 6.4 16.1 0.00 0.00 0.00 58 1014.1
20260506012832 18 153 6.4 16.1 0.00 0.00 0.00 58 1014.2
20260506012730 18 205 6.4 16.1 0.00 0.00 0.00 58 1014.1
20260506012632 18 166 6.4 16.1 0.00 0.00 0.00 58 1014.1
20260506012530 18 174 6.4 16.1 0.00 0.00 0.00 58 1014.1
20260506012431 18 140 8.0 16.1 0.00 0.00 0.00 57 1014.1
20260506012330 18 123 6.4 16.1 0.00 0.00 0.00 57 1014.0
20260506012230 18 167 6.4 16.1 0.00 0.00 0.00 58 1014.1
20260506012131 18 150 6.4 16.1 0.00 0.00 0.00 58 1014.1
20260506012030 18 124 6.4 16.1 0.00 0.00 0.00 57 1014.0
20260506011930 18 135 6.4 16.1 0.00 0.00 0.00 58 1014.1
20260506011832 18 130 6.4 16.1 0.00 0.00 0.00 57 1014.1
20260506011730 18 173 6.4 19.3 0.00 0.00 0.00 57 1014.2
20260506011631 18 201 6.4 19.3 0.00 0.00 0.00 57 1014.2
20260506011530 18 149 6.4 19.3 0.00 0.00 0.00 57 1014.2
20260506011431 18 196 6.4 19.3 0.00 0.00 0.00 57 1014.2
20260506011330 18 164 6.4 19.3 0.00 0.00 0.00 57 1014.1
20260506011232 18 150 6.4 19.3 0.00 0.00 0.00 57 1014.2
20260506011131 18 121 6.4 19.3 0.00 0.00 0.00 57 1014.1
20260506011026 18 164 6.4 19.3 0.00 0.00 0.00 57 1014.2
20260506010927 18 133 6.4 19.3 0.00 0.00 0.00 57 1014.1
20260506010826 18 156 6.4 19.3 0.00 0.00 0.00 57 1014.1
20260506010726 18 151 6.4 16.1 0.00 0.00 0.00 57 1014.1
20260506010627 18 136 6.4 16.1 0.00 0.00 0.00 57 1014.1
20260506010526 18 178 6.4 16.1 0.00 0.00 0.00 57 1014.1
20260506010427 18 165 6.4 16.1 0.00 0.00 0.00 57 1014.1
20260506010327 18 155 6.4 16.1 0.00 0.00 0.00 57 1014.1
20260506010226 18 169 6.4 16.1 0.00 0.00 0.00 57 1014.1
20260506010127 18 139 6.4 16.1 0.00 0.00 0.00 57 1014.1
20260506010027 18 169 6.4 16.1 0.00 0.00 0.00 57 1014.0
20260506005928 18 180 6.4 16.1 0.00 0.00 0.00 57 1014.0
20260506005826 18 157 6.4 14.5 0.00 0.00 0.00 57 1014.1
20260506005726 18 146 6.4 14.5 0.00 0.00 0.00 57 1014.0
20260506005626 18 163 6.4 14.5 0.00 0.00 0.00 57 1014.2
20260506005528 18 153 6.4 14.5 0.00 0.00 0.00 57 1014.1
20260506005427 18 153 6.4 14.5 0.00 0.00 0.00 57 1014.1
20260506005326 18 117 6.4 14.5 0.00 0.00 0.00 56 1014.1
20260506005226 18 157 6.4 14.5 0.00 0.00 0.00 56 1014.1
20260506005126 18 171 6.4 14.5 0.00 0.00 0.00 56 1014.2
20260506005028 18 174 6.4 14.5 0.00 0.00 0.00 56 1014.0
20260506004927 18 153 6.4 14.5 0.00 0.00 0.00 56 1014.1
20260506004826 18 157 6.4 12.9 0.00 0.00 0.00 56 1014.1
20260506004727 18 147 6.4 14.5 0.00 0.00 0.00 56 1014.0
20260506004627 18 134 6.4 14.5 0.00 0.00 0.00 56 1014.1
20260506004527 18 157 6.4 14.5 0.00 0.00 0.00 56 1014.0
20260506004427 18 146 6.4 14.5 0.00 0.00 0.00 56 1014.0
20260506004327 18 131 6.4 14.5 0.00 0.00 0.00 56 1014.0
20260506004227 18 142 6.4 14.5 0.00 0.00 0.00 56 1014.0
20260506004126 18 166 6.4 14.5 0.00 0.00 0.00 56 1013.9
20260506004026 18 149 6.4 14.5 0.00 0.00 0.00 55 1014.0
20260506003927 18 181 6.4 14.5 0.00 0.00 0.00 55 1014.0
20260506003828 18 186 6.4 14.5 0.00 0.00 0.00 55 1013.8
20260506003722 18 151 6.4 12.9 0.00 0.00 0.00 55 1013.9
20260506003623 18 132 6.4 12.9 0.00 0.00 0.00 55 1013.9
20260506003523 18 135 6.4 12.9 0.00 0.00 0.00 55 1013.8
20260506003423 18 160 6.4 12.9 0.00 0.00 0.00 55 1014.0
20260506003323 18 146 6.4 12.9 0.00 0.00 0.00 55 1013.9
20260506003223 18 168 6.4 12.9 0.00 0.00 0.00 54 1013.9
20260506003122 18 133 6.4 12.9 0.00 0.00 0.00 54 1014.0
20260506003023 18 200 4.8 12.9 0.00 0.00 0.00 54 1013.9
20260506002923 18 175 4.8 9.7 0.00 0.00 0.00 54 1013.9
20260506002823 18 175 4.8 9.7 0.00 0.00 0.00 54 1013.9
20260506002722 18 177 4.8 9.7 0.00 0.00 0.00 54 1013.9
20260506002624 18 161 4.8 9.7 0.00 0.00 0.00 54 1013.9
20260506002523 18 164 4.8 9.7 0.00 0.00 0.00 54 1013.9
20260506002422 18 168 4.8 9.7 0.00 0.00 0.00 54 1014.0
20260506002323 18 159 4.8 9.7 0.00 0.00 0.00 54 1013.9
20260506002224 18 167 3.2 9.7 0.00 0.00 0.00 54 1013.9
20260506002122 18 185 3.2 9.7 0.00 0.00 0.00 53 1013.9
20260506002022 18 157 3.2 9.7 0.00 0.00 0.00 53 1014.0
20260506001923 18 136 3.2 9.7 0.00 0.00 0.00 53 1013.9
20260506001821 18 136 1.6 9.7 0.00 0.00 0.00 53 1014.0
20260506001722 18 150 1.6 9.7 0.00 0.00 0.00 53 1013.9
20260506001619 18 151 1.6 9.7 0.00 0.00 0.00 53 1014.0
20260506001517 18 148 1.6 9.7 0.00 0.00 0.00 53 1013.9
20260506001414 18 148 1.6 9.7 0.00 0.00 0.00 52 1014.0
20260506001311 18 188 1.6 11.3 0.00 0.00 0.00 53 1014.1
20260506001208 18 188 3.2 11.3 0.00 0.00 0.00 52 1014.0
20260506001106 18 159 1.6 11.3 0.00 0.00 0.00 52 1014.0
20260506001007 18 150 1.6 11.3 0.00 0.00 0.00 52 1014.0
20260506000904 18 164 1.6 11.3 0.00 0.00 0.00 52 1014.0
20260506000801 19 165 1.6 11.3 0.00 0.00 0.00 52 1013.9
20260506000658 19 175 1.6 11.3 0.00 0.00 0.00 52 1014.0
20260506000559 19 133 1.6 11.3 0.00 0.00 0.00 52 1014.0
20260506000459 19 150 1.6 14.5 0.00 0.00 0.00 52 1014.0
20260506000401 19 186 1.6 14.5 0.00 0.00 0.00 51 1014.0
20260506000255 19 169 1.6 14.5 0.00 0.00 0.00 51 1014.0
20260506000154 19 150 1.6 14.5 0.00 0.00 0.00 51 1014.0
20260506000055 19 196 1.6 14.5 0.00 0.00 0.00 51 1014.1
20260505235955 19 190 1.6 14.5 0.00 0.00 0.00 51 1014.1
20260505235853 19 165 3.2 14.5 0.00 0.00 0.00 51 1014.1
20260505235746 19 165 3.2 14.5 0.00 0.00 0.00 51 1014.1
20260505235647 19 177 3.2 14.5 0.00 0.00 0.00 51 1014.0
20260505235544 19 196 1.6 14.5 0.00 0.00 0.00 51 1014.0
20260505235443 19 157 1.6 12.9 0.00 0.00 0.00 51 1014.0
20260505235343 19 155 1.6 9.7 0.00 0.00 0.00 51 1013.9
20260505235243 19 180 1.6 9.7 0.00 0.00 0.00 51 1014.0
20260505235140 19 175 1.6 9.7 0.00 0.00 0.00 51 1014.0
20260505235037 19 165 1.6 12.9 0.00 0.00 0.00 50 1014.0
20260505234935 20 144 1.6 12.9 0.00 0.00 0.00 50 1013.9
20260505234838 20 164 3.2 12.9 0.00 0.00 0.00 50 1014.0
20260505234738 20 138 1.6 12.9 0.00 0.00 0.00 50 1014.0
20260505234635 20 178 1.6 12.9 0.00 0.00 0.00 50 1013.9
20260505234536 20 221 1.6 12.9 0.00 0.00 0.00 50 1014.0
20260505234433 20 159 1.6 12.9 0.00 0.00 0.00 50 1014.1
20260505234331 20 169 1.6 12.9 0.00 0.00 0.00 50 1014.0
20260505234221 20 196 1.6 12.9 0.00 0.00 0.00 50 1014.0
20260505234121 20 129 1.6 12.9 0.00 0.00 0.00 50 1014.0
20260505234022 20 136 1.6 12.9 0.00 0.00 0.00 49 1014.0
20260505233920 20 156 0.0 12.9 0.00 0.00 0.00 49 1014.0
20260505233821 20 270 0.0 3.2 0.00 0.00 0.00 49 1014.0
20260505233714 20 131 0.0 3.2 0.00 0.00 0.00 49 1014.0
20260505233614 20 128 0.0 3.2 0.00 0.00 0.00 48 1014.0
20260505233513 20 125 0.0 3.2 0.00 0.00 0.00 49 1013.9
20260505233415 20 213 0.0 3.2 0.00 0.00 0.00 49 1013.9
20260505233315 20 146 0.0 3.2 0.00 0.00 0.00 49 1014.0
20260505233210 20 146 0.0 3.2 0.00 0.00 0.00 48 1013.9
20260505233109 20 153 0.0 1.6 0.00 0.00 0.00 48 1013.9
20260505233010 20 154 0.0 1.6 0.00 0.00 0.00 49 1013.9
20260505232909 20 158 0.0 0.0 0.00 0.00 0.00 48 1013.8
20260505232809 20 160 0.0 0.0 0.00 0.00 0.00 48 1013.8
20260505232659 20 187 0.0 0.0 0.00 0.00 0.00 49 1013.8
20260505232558 20 146 0.0 0.0 0.00 0.00 0.00 49 1013.8
20260505232459 20 153 0.0 0.0 0.00 0.00 0.00 48 1013.8
20260505232359 20 133 0.0 0.0 0.00 0.00 0.00 48 1013.8
20260505232259 20 182 0.0 0.0 0.00 0.00 0.00 48 1013.9
20260505232157 20 127 0.0 0.0 0.00 0.00 0.00 48 1013.9
20260505232056 20 152 0.0 0.0 0.00 0.00 0.00 48 1013.8
20260505231956 20 177 0.0 0.0 0.00 0.00 0.00 48 1013.8
20260505231856 20 183 0.0 0.0 0.00 0.00 0.00 48 1013.7
20260505231753 20 178 0.0 0.0 0.00 0.00 0.00 48 1013.9
20260505231646 20 148 0.0 0.0 0.00 0.00 0.00 48 1013.9
20260505231547 20 155 0.0 0.0 0.00 0.00 0.00 48 1013.7
20260505231446 20 232 0.0 0.0 0.00 0.00 0.00 47 1013.9
20260505231347 20 211 0.0 0.0 0.00 0.00 0.00 48 1013.8
20260505231247 20 166 0.0 0.0 0.00 0.00 0.00 48 1013.8
20260505231140 20 171 0.0 0.0 0.00 0.00 0.00 48 1013.8
20260505231037 20 160 0.0 0.0 0.00 0.00 0.00 48 1013.9
20260505230937 20 148 0.0 0.0 0.00 0.00 0.00 48 1013.8
20260505230836 20 202 0.0 0.0 0.00 0.00 0.00 48 1013.8
20260505230736 20 176 0.0 0.0 0.00 0.00 0.00 47 1013.8
20260505230632 20 190 0.0 0.0 0.00 0.00 0.00 48 1013.7
20260505230534 20 156 0.0 0.0 0.00 0.00 0.00 48 1013.9
20260505230432 20 146 0.0 0.0 0.00 0.00 0.00 48 1013.8
20260505230333 20 160 0.0 0.0 0.00 0.00 0.00 48 1013.9
20260505230231 20 171 0.0 0.0 0.00 0.00 0.00 49 1013.8
20260505230128 20 175 0.0 0.0 0.00 0.00 0.00 48 1013.8
20260505230028 21 177 0.0 0.0 0.00 0.00 0.00 48 1013.8
20260505225930 21 186 0.0 0.0 0.00 0.00 0.00 49 1013.8
20260505225827 21 161 0.0 0.0 0.00 0.00 0.00 49 1013.9
20260505225725 21 198 0.0 0.0 0.00 0.00 0.00 49 1013.8
20260505225614 21 153 0.0 0.0 0.00 0.00 0.00 49 1013.8
20260505225514 21 171 0.0 0.0 0.00 0.00 0.00 48 1013.9
20260505225413 21 164 0.0 0.0 0.00 0.00 0.00 49 1013.9
20260505225314 21 173 0.0 0.0 0.00 0.00 0.00 49 1013.8
20260505225212 21 169 0.0 0.0 0.00 0.00 0.00 48 1013.7
20260505225106 21 165 0.0 0.0 0.00 0.00 0.00 48 1013.8
20260505225008 21 131 0.0 0.0 0.00 0.00 0.00 48 1013.7
20260505224906 21 156 0.0 0.0 0.00 0.00 0.00 49 1013.8
20260505224806 21 155 0.0 0.0 0.00 0.00 0.00 48 1013.8
20260505224707 21 128 0.0 0.0 0.00 0.00 0.00 49 1013.9
20260505224600 21 128 0.0 0.0 0.00 0.00 0.00 48 1013.9
20260505224500 21 128 0.0 0.0 0.00 0.00 0.00 48 1013.9
20260505224401 21 127 0.0 0.0 0.00 0.00 0.00 48 1013.9
20260505224301 21 152 0.0 0.0 0.00 0.00 0.00 48 1013.9
20260505224200 21 205 0.0 0.0 0.00 0.00 0.00 48 1013.8
20260505224052 21 158 0.0 0.0 0.00 0.00 0.00 47 1013.9
20260505223954 21 133 0.0 0.0 0.00 0.00 0.00 48 1013.8
20260505223852 21 165 0.0 0.0 0.00 0.00 0.00 47 1013.9
20260505223752 21 182 0.0 0.0 0.00 0.00 0.00 47 1013.9
20260505223650 21 153 0.0 0.0 0.00 0.00 0.00 47 1013.9
20260505223547 21 165 0.0 0.0 0.00 0.00 0.00 48 1013.9
20260505223444 21 144 0.0 0.0 0.00 0.00 0.00 48 1013.8
20260505223346 21 159 0.0 0.0 0.00 0.00 0.00 46 1013.8
20260505223245 21 156 0.0 0.0 0.00 0.00 0.00 47 1013.8
20260505223144 21 156 0.0 0.0 0.00 0.00 0.00 47 1013.8
20260505223042 21 147 0.0 0.0 0.00 0.00 0.00 47 1013.8
20260505222942 21 163 0.0 0.0 0.00 0.00 0.00 47 1013.8
20260505222842 21 190 0.0 0.0 0.00 0.00 0.00 48 1013.8
20260505222741 21 155 0.0 0.0 0.00 0.00 0.00 47 1013.9
20260505222638 21 111 0.0 0.0 0.00 0.00 0.00 46 1013.9
20260505222533 21 156 0.0 0.0 0.00 0.00 0.00 47 1013.9
20260505222433 21 171 0.0 0.0 0.00 0.00 0.00 46 1013.8
20260505222333 21 180 0.0 0.0 0.00 0.00 0.00 46 1013.9
20260505222232 21 181 0.0 0.0 0.00 0.00 0.00 47 1013.8
20260505222128 21 147 0.0 0.0 0.00 0.00 0.00 47 1013.8
20260505222029 21 148 0.0 0.0 0.00 0.00 0.00 46 1013.8
20260505221926 21 181 0.0 0.0 0.00 0.00 0.00 46 1013.8
20260505221827 21 163 0.0 0.0 0.00 0.00 0.00 47 1013.8
20260505221725 21 146 0.0 0.0 0.00 0.00 0.00 47 1013.8
20260505221622 21 190 0.0 0.0 0.00 0.00 0.00 47 1013.7
20260505221519 21 153 0.0 0.0 0.00 0.00 0.00 47 1013.7
20260505221416 21 165 0.0 0.0 0.00 0.00 0.00 47 1013.7
20260505221317 21 135 0.0 0.0 0.00 0.00 0.00 47 1013.7
20260505221216 21 155 0.0 0.0 0.00 0.00 0.00 46 1013.8
20260505221116 21 174 0.0 0.0 0.00 0.00 0.00 46 1013.8
20260505221009 21 195 0.0 0.0 0.00 0.00 0.00 46 1013.8
20260505220906 21 180 0.0 0.0 0.00 0.00 0.00 47 1013.8
20260505220807 21 142 0.0 0.0 0.00 0.00 0.00 46 1013.8
20260505220707 21 184 0.0 0.0 0.00 0.00 0.00 46 1013.8
20260505220606 21 175 0.0 0.0 0.00 0.00 0.00 47 1013.8
20260505220500 21 155 0.0 0.0 0.00 0.00 0.00 46 1013.8
20260505220400 21 186 0.0 0.0 0.00 0.00 0.00 45 1013.8
20260505220301 21 174 0.0 0.0 0.00 0.00 0.00 45 1013.8
20260505220201 21 182 0.0 0.0 0.00 0.00 0.00 46 1013.7
20260505220101 21 131 0.0 0.0 0.00 0.00 0.00 46 1013.9
20260505215957 21 181 0.0 0.0 0.00 0.00 0.00 46 1013.8
20260505215856 21 197 0.0 0.0 0.00 0.00 0.00 46 1013.8
20260505215756 21 176 0.0 0.0 0.00 0.00 0.00 45 1013.9
20260505215658 21 169 0.0 0.0 0.00 0.00 0.00 46 1013.8
20260505215555 21 194 0.0 0.0 0.00 0.00 0.00 45 1013.9
20260505215447 21 140 0.0 0.0 0.00 0.00 0.00 45 1013.8
20260505215345 21 179 0.0 0.0 0.00 0.00 0.00 45 1013.9
20260505215245 21 156 0.0 0.0 0.00 0.00 0.00 45 1014.0
20260505215144 21 178 0.0 0.0 0.00 0.00 0.00 46 1014.0
20260505215044 21 123 0.0 0.0 0.00 0.00 0.00 46 1014.0
20260505214938 21 187 0.0 0.0 0.00 0.00 0.00 47 1014.0
20260505214839 21 130 0.0 0.0 0.00 0.00 0.00 46 1014.0
20260505214739 21 182 0.0 0.0 0.00 0.00 0.00 46 1013.9
20260505214639 21 149 0.0 0.0 0.00 0.00 0.00 46 1013.9
20260505214539 21 150 0.0 0.0 0.00 0.00 0.00 45 1013.9
20260505214433 21 157 0.0 0.0 0.00 0.00 0.00 46 1014.0
20260505214332 21 220 0.0 0.0 0.00 0.00 0.00 46 1014.0
20260505214232 21 132 0.0 0.0 0.00 0.00 0.00 46 1014.0
20260505214133 21 133 0.0 0.0 0.00 0.00 0.00 45 1014.0
20260505214033 21 209 0.0 0.0 0.00 0.00 0.00 46 1013.9
20260505213927 21 180 0.0 0.0 0.00 0.00 0.00 45 1013.9
20260505213825 22 154 0.0 0.0 0.00 0.00 0.00 46 1013.9
20260505213727 22 167 0.0 0.0 0.00 0.00 0.00 44 1014.1
20260505213624 22 213 0.0 0.0 0.00 0.00 0.00 45 1013.9
20260505213522 22 161 0.0 0.0 0.00 0.00 0.00 45 1013.9
20260505213417 22 148 0.0 0.0 0.00 0.00 0.00 45 1014.0
20260505213316 22 146 0.0 0.0 0.00 0.00 0.00 44 1013.9
20260505213216 22 136 0.0 0.0 0.00 0.00 0.00 44 1013.9
20260505213117 22 169 0.0 0.0 0.00 0.00 0.00 46 1013.8
20260505213017 22 163 0.0 0.0 0.00 0.00 0.00 46 1013.9
20260505212911 22 165 0.0 0.0 0.00 0.00 0.00 45 1014.0
20260505212810 22 136 0.0 0.0 0.00 0.00 0.00 45 1014.0
20260505212711 22 142 0.0 0.0 0.00 0.00 0.00 45 1014.0
20260505212611 22 170 0.0 0.0 0.00 0.00 0.00 46 1014.0
20260505212510 22 80 0.0 0.0 0.00 0.00 0.00 47 1014.0
20260505212400 22 163 0.0 0.0 0.00 0.00 0.00 47 1014.1
20260505212301 22 44 0.0 0.0 0.00 0.00 0.00 46 1014.1
20260505212159 22 159 0.0 0.0 0.00 0.00 0.00 46 1014.0
20260505212101 22 114 0.0 0.0 0.00 0.00 0.00 46 1014.0
20260505212001 22 125 0.0 0.0 0.00 0.00 0.00 47 1014.0
20260505211858 22 105 0.0 0.0 0.00 0.00 0.00 47 1014.1
20260505211758 22 207 0.0 0.0 0.00 0.00 0.00 46 1014.1
20260505211657 22 154 0.0 0.0 0.00 0.00 0.00 48 1014.1
20260505211557 22 83 0.0 0.0 0.00 0.00 0.00 46 1014.1
20260505211454 22 205 0.0 0.0 0.00 0.00 0.00 45 1014.1
20260505211348 22 182 0.0 0.0 0.00 0.00 0.00 45 1014.1
20260505211250 22 118 0.0 0.0 0.00 0.00 0.00 46 1014.2
20260505211149 22 130 0.0 0.0 0.00 0.00 0.00 46 1014.0
20260505211048 22 120 0.0 0.0 0.00 0.00 0.00 45 1014.1
20260505210949 22 167 0.0 0.0 0.00 0.00 0.00 46 1014.1
20260505210841 22 178 0.0 0.0 0.00 0.00 0.00 46 1014.2
20260505210738 22 169 0.0 0.0 0.00 0.00 0.00 46 1014.0
20260505210639 22 169 0.0 0.0 0.00 0.00 0.00 45 1014.0
20260505210539 22 153 0.0 0.0 0.00 0.00 0.00 45 1014.1
20260505210439 22 156 0.0 0.0 0.00 0.00 0.00 46 1014.1
20260505210334 22 133 0.0 0.0 0.00 0.00 0.00 46 1014.0
20260505210234 22 144 0.0 0.0 0.00 0.00 0.00 45 1014.1
20260505210134 22 222 0.0 0.0 0.00 0.00 0.00 44 1014.0
20260505210036 22 192 0.0 0.0 0.00 0.00 0.00 45 1014.1
20260505205933 22 178 0.0 0.0 0.00 0.00 0.00 44 1014.1
20260505205827 22 152 0.0 0.0 0.00 0.00 0.00 45 1014.1
20260505205725 22 173 0.0 0.0 0.00 0.00 0.00 45 1014.1
20260505205627 22 146 0.0 0.0 0.00 0.00 0.00 45 1014.1
20260505205526 22 169 0.0 0.0 0.00 0.00 0.00 44 1014.1
20260505205426 22 205 0.0 0.0 0.00 0.00 0.00 44 1014.2
20260505205316 22 190 0.0 0.0 0.00 0.00 0.00 44 1014.1
20260505205216 22 170 0.0 0.0 0.00 0.00 0.00 43 1014.1
20260505205116 22 144 0.0 0.0 0.00 0.00 0.00 43 1014.1
20260505205017 22 233 0.0 0.0 0.00 0.00 0.00 45 1014.3
20260505204917 22 113 0.0 0.0 0.00 0.00 0.00 45 1014.2
20260505204817 22 161 0.0 0.0 0.00 0.00 0.00 43 1014.2
20260505204713 22 137 0.0 0.0 0.00 0.00 0.00 44 1014.2
20260505204614 22 134 0.0 0.0 0.00 0.00 0.00 43 1014.1
20260505204513 22 175 0.0 0.0 0.00 0.00 0.00 43 1014.2
20260505204411 23 197 0.0 0.0 0.00 0.00 0.00 43 1014.3
20260505204305 23 154 0.0 0.0 0.00 0.00 0.00 43 1014.3
20260505204205 23 138 0.0 0.0 0.00 0.00 0.00 42 1014.2
20260505204105 23 161 0.0 0.0 0.00 0.00 0.00 43 1014.3
20260505204004 23 176 0.0 0.0 0.00 0.00 0.00 44 1014.3
20260505203905 23 71 0.0 0.0 0.00 0.00 0.00 44 1014.4
20260505203758 23 154 0.0 0.0 0.00 0.00 0.00 44 1014.3
20260505203658 23 109 0.0 0.0 0.00 0.00 0.00 43 1014.3
20260505203601 23 192 0.0 0.0 0.00 0.00 0.00 43 1014.3
20260505203457 23 55 0.0 0.0 0.00 0.00 0.00 42 1014.3
20260505203355 23 142 0.0 0.0 0.00 0.00 0.00 42 1014.2
20260505203249 23 182 0.0 0.0 0.00 0.00 0.00 41 1014.2
20260505203148 23 165 0.0 0.0 0.00 0.00 0.00 41 1014.2
20260505203049 23 140 0.0 0.0 0.00 0.00 0.00 41 1014.2
20260505202949 23 311 0.0 0.0 0.00 0.00 0.00 43 1014.2
20260505202848 23 198 0.0 0.0 0.00 0.00 0.00 44 1014.2
20260505202744 23 157 0.0 0.0 0.00 0.00 0.00 43 1014.1
20260505202642 23 156 0.0 0.0 0.00 0.00 0.00 45 1014.2
20260505202543 23 167 0.0 0.0 0.00 0.00 0.00 42 1014.2
20260505202443 23 149 0.0 0.0 0.00 0.00 0.00 41 1014.0
20260505202343 23 196 0.0 0.0 0.00 0.00 0.00 43 1014.2
20260505202234 22 165 0.0 0.0 0.00 0.00 0.00 42 1014.2
20260505202133 22 178 0.0 0.0 0.00 0.00 0.00 41 1014.2
20260505202032 22 157 0.0 0.0 0.00 0.00 0.00 41 1014.2
20260505201933 23 152 0.0 0.0 0.00 0.00 0.00 42 1014.1
20260505201832 23 236 0.0 0.0 0.00 0.00 0.00 42 1014.2
20260505201725 23 159 0.0 0.0 0.00 0.00 0.00 43 1014.3
20260505201626 23 99 0.0 0.0 0.00 0.00 0.00 44 1014.3
20260505201526 23 180 0.0 0.0 0.00 0.00 0.00 42 1014.3
20260505201427 22 133 0.0 0.0 0.00 0.00 0.00 43 1014.4
20260505201327 22 143 0.0 0.0 0.00 0.00 0.00 43 1014.5
20260505201224 22 150 0.0 0.0 0.00 0.00 0.00 42 1014.5
20260505201123 22 208 0.0 0.0 0.00 0.00 0.00 43 1014.4
20260505201024 22 198 0.0 0.0 0.00 0.00 0.00 41 1014.4
20260505200923 22 171 0.0 0.0 0.00 0.00 0.00 42 1014.5
20260505200820 22 205 0.0 0.0 0.00 0.00 0.00 42 1014.3
20260505200712 22 157 0.0 0.0 0.00 0.00 0.00 44 1014.3
20260505200611 22 136 0.0 0.0 0.00 0.00 0.00 43 1014.2
20260505200512 22 153 0.0 0.0 0.00 0.00 0.00 44 1014.4
20260505200413 22 178 0.0 0.0 0.00 0.00 0.00 46 1014.4
20260505200310 22 131 0.0 0.0 0.00 0.00 0.00 45 1014.5
20260505200205 22 181 0.0 0.0 0.00 0.00 0.00 45 1014.5
20260505200105 22 195 0.0 0.0 0.00 0.00 0.00 45 1014.6
20260505200005 22 161 0.0 0.0 0.00 0.00 0.00 44 1014.6
20260505195904 22 189 0.0 0.0 0.00 0.00 0.00 45 1014.6
20260505195805 22 182 0.0 0.0 0.00 0.00 0.00 45 1014.7
20260505195700 22 205 0.0 0.0 0.00 0.00 0.00 47 1014.6
20260505195558 22 146 0.0 0.0 0.00 0.00 0.00 46 1014.6
20260505195459 22 136 0.0 0.0 0.00 0.00 0.00 45 1014.6
20260505195359 22 184 0.0 0.0 0.00 0.00 0.00 46 1014.6
20260505195258 22 177 0.0 0.0 0.00 0.00 0.00 46 1014.6
20260505195150 22 132 0.0 0.0 0.00 0.00 0.00 46 1014.5
20260505195052 22 128 0.0 0.0 0.00 0.00 0.00 45 1014.7
20260505194950 22 240 0.0 0.0 0.00 0.00 0.00 46 1014.7
20260505194850 22 169 0.0 0.0 0.00 0.00 0.00 45 1014.6
20260505194749 22 160 0.0 0.0 0.00 0.00 0.00 46 1014.7
20260505194645 22 130 0.0 0.0 0.00 0.00 0.00 46 1014.6
20260505194543 22 182 0.0 0.0 0.00 0.00 0.00 45 1014.5
20260505194442 22 161 0.0 0.0 0.00 0.00 0.00 45 1014.6
20260505194344 22 111 0.0 0.0 0.00 0.00 0.00 44 1014.6
20260505194243 22 198 0.0 0.0 0.00 0.00 0.00 44 1014.6
20260505194135 23 275 0.0 0.0 0.00 0.00 0.00 45 1014.8
20260505194037 23 150 0.0 0.0 0.00 0.00 0.00 45 1014.5
20260505193937 23 178 0.0 0.0 0.00 0.00 0.00 43 1014.6
20260505193835 23 177 0.0 0.0 0.00 0.00 0.00 45 1014.6
20260505193737 23 171 0.0 0.0 0.00 0.00 0.00 45 1014.6
20260505193629 23 107 0.0 0.0 0.00 0.00 0.00 44 1014.5
20260505193531 23 123 0.0 0.0 0.00 0.00 0.00 45 1014.6
20260505193430 23 126 0.0 0.0 0.00 0.00 0.00 45 1014.8
20260505193329 23 134 0.0 0.0 0.00 0.00 0.00 46 1014.6
20260505193226 23 144 0.0 0.0 0.00 0.00 0.00 46 1014.7
20260505193122 23 196 0.0 0.0 0.00 0.00 0.00 45 1014.7
20260505193023 23 136 0.0 0.0 0.00 0.00 0.00 45 1014.8
20260505192923 23 153 0.0 0.0 0.00 0.00 0.00 45 1014.7
20260505192823 23 170 0.0 0.0 0.00 0.00 0.00 45 1014.8
20260505192721 23 121 0.0 0.0 0.00 0.00 0.00 46 1014.9
20260505192615 23 109 0.0 0.0 0.00 0.00 0.00 45 1014.8
20260505192514 23 227 0.0 0.0 0.00 0.00 0.00 45 1014.8
20260505192415 22 153 0.0 0.0 0.00 0.00 0.00 45 1014.8
20260505192315 22 144 0.0 0.0 0.00 0.00 0.00 46 1014.7
20260505192215 22 126 0.0 0.0 0.00 0.00 0.00 45 1014.8
20260505192104 22 133 0.0 0.0 0.00 0.00 0.00 44 1014.8
20260505192004 22 124 0.0 0.0 0.00 0.00 0.00 44 1014.7
20260505191904 22 165 0.0 0.0 0.00 0.00 0.00 43 1014.8
20260505191804 22 159 0.0 0.0 0.00 0.00 0.00 43 1014.8
20260505191705 22 157 0.0 0.0 0.00 0.00 0.00 44 1014.9
20260505191558 22 181 0.0 0.0 0.00 0.00 0.00 47 1014.8
20260505191459 22 146 0.0 0.0 0.00 0.00 0.00 44 1014.9
20260505191359 22 125 0.0 0.0 0.00 0.00 0.00 44 1015.0
20260505191259 22 182 0.0 0.0 0.00 0.00 0.00 43 1014.9
20260505191158 23 137 0.0 0.0 0.00 0.00 0.00 44 1014.9
20260505191056 23 141 0.0 0.0 0.00 0.00 0.00 45 1015.0
20260505190956 23 203 0.0 0.0 0.00 0.00 0.00 45 1015.0
20260505190856 23 165 0.0 0.0 0.00 0.00 0.00 45 1015.1
20260505190753 23 134 0.0 0.0 0.00 0.00 0.00 46 1015.0
20260505190653 23 134 0.0 0.0 0.00 0.00 0.00 46 1015.1
20260505190546 23 104 0.0 0.0 0.00 0.00 0.00 45 1015.1
20260505190346 22 125 0.0 0.0 0.00 0.00 0.00 44 1015.3
20260505190245 22 130 0.0 0.0 0.00 0.00 0.00 44 1015.3
20260505190142 22 133 0.0 0.0 0.00 0.00 0.00 45 1015.3
20260505190037 22 111 0.0 0.0 0.00 0.00 0.00 44 1015.4
20260505185937 22 158 0.0 0.0 0.00 0.00 0.00 45 1015.1
20260505185837 22 136 0.0 0.0 0.00 0.00 0.00 46 1015.3
20260505185736 22 150 0.0 0.0 0.00 0.00 0.00 45 1015.3
20260505185636 22 123 0.0 0.0 0.00 0.00 0.00 47 1015.3
20260505185531 22 154 0.0 0.0 0.00 0.00 0.00 47 1015.4
20260505185433 22 169 0.0 0.0 0.00 0.00 0.00 47 1015.5
20260505185333 22 167 0.0 0.0 0.00 0.00 0.00 45 1015.3
20260505185233 22 159 0.0 0.0 0.00 0.00 0.00 45 1015.5
20260505185131 22 166 0.0 0.0 0.00 0.00 0.00 45 1015.5
20260505185025 23 143 0.0 0.0 0.00 0.00 0.00 45 1015.4
20260505184926 23 168 0.0 0.0 0.00 0.00 0.00 45 1015.4
20260505184826 23 187 0.0 0.0 0.00 0.00 0.00 44 1015.5
20260505184725 23 167 0.0 0.0 0.00 0.00 0.00 44 1015.5
20260505184627 23 266 0.0 0.0 0.00 0.00 0.00 44 1015.6
20260505184526 23 267 0.0 0.0 0.00 0.00 0.00 43 1015.6
20260505184426 23 133 0.0 0.0 0.00 0.00 0.00 44 1015.5
20260505184327 23 179 0.0 0.0 0.00 0.00 0.00 45 1015.5
20260505184223 23 170 0.0 0.0 0.00 0.00 0.00 47 1015.4
20260505184124 23 114 0.0 0.0 0.00 0.00 0.00 45 1015.4
20260505184024 23 136 0.0 0.0 0.00 0.00 0.00 46 1015.5
20260505183924 23 118 0.0 0.0 0.00 0.00 0.00 44 1015.5
20260505183825 23 221 0.0 0.0 0.00 0.00 0.00 46 1015.6
20260505183722 23 140 0.0 0.0 0.00 0.00 0.00 45 1015.6
20260505183621 23 184 0.0 0.0 0.00 0.00 0.00 45 1015.6
20260505183521 23 56 0.0 0.0 0.00 0.00 0.00 48 1015.6
20260505183422 23 229 0.0 0.0 0.00 0.00 0.00 45 1015.5
20260505183323 23 57 0.0 0.0 0.00 0.00 0.00 45 1015.6
20260505183221 23 162 0.0 0.0 0.00 0.00 0.00 46 1015.6
20260505183123 23 191 0.0 0.0 0.00 0.00 0.00 47 1015.6
20260505183023 23 139 0.0 0.0 0.00 0.00 0.00 49 1015.6
20260505182924 22 130 0.0 0.0 0.00 0.00 0.00 47 1015.7
20260505182823 22 149 0.0 0.0 0.00 0.00 0.00 46 1015.7
20260505182721 22 186 0.0 0.0 0.00 0.00 0.00 48 1015.7
20260505182622 22 146 0.0 0.0 0.00 0.00 0.00 49 1015.8
20260505182521 22 89 0.0 0.0 0.00 0.00 0.00 48 1015.7
20260505182418 22 166 0.0 0.0 0.00 0.00 0.00 46 1015.8
20260505182318 22 195 0.0 0.0 0.00 0.00 0.00 46 1015.9
20260505182217 22 215 0.0 0.0 0.00 0.00 0.00 46 1015.8
20260505182117 22 159 0.0 0.0 0.00 0.00 0.00 46 1015.8
20260505182018 22 138 0.0 0.0 0.00 0.00 0.00 45 1015.7
20260505181918 22 139 0.0 0.0 0.00 0.00 0.00 48 1015.8
20260505181818 22 116 0.0 0.0 0.00 0.00 0.00 46 1015.8
20260505181718 22 150 0.0 0.0 0.00 0.00 0.00 45 1015.8
20260505181614 23 161 0.0 0.0 0.00 0.00 0.00 46 1015.9
20260505181513 23 163 0.0 0.0 0.00 0.00 0.00 47 1015.9
20260505181413 23 150 0.0 0.0 0.00 0.00 0.00 46 1015.9
20260505181311 23 194 0.0 0.0 0.00 0.00 0.00 45 1016.0
20260505181213 23 221 0.0 0.0 0.00 0.00 0.00 45 1015.9
20260505181106 23 107 0.0 0.0 0.00 0.00 0.00 45 1016.0
20260505181006 23 164 0.0 0.0 0.00 0.00 0.00 44 1016.0
20260505180906 23 137 0.0 0.0 0.00 0.00 0.00 47 1016.0
20260505180806 23 141 0.0 0.0 0.00 0.00 0.00 46 1016.1
20260505180707 23 130 0.0 0.0 0.00 0.00 0.00 44 1016.1
20260505180600 23 245 0.0 0.0 0.00 0.00 0.00 45 1016.2
20260505180501 23 140 0.0 0.0 0.00 0.00 0.00 45 1016.2
20260505180359 23 71 0.0 0.0 0.00 0.00 0.00 44 1016.2
20260505180301 23 242 0.0 0.0 0.00 0.00 0.00 44 1016.2
20260505180159 23 173 0.0 0.0 0.00 0.00 0.00 43 1016.2
20260505180100 23 114 0.0 0.0 0.00 0.00 0.00 43 1016.1
20260505175959 23 148 0.0 0.0 0.00 0.00 0.00 44 1016.2
20260505175900 23 134 0.0 0.0 0.00 0.00 0.00 43 1016.2
20260505175801 23 155 0.0 0.0 0.00 0.00 0.00 42 1016.1
20260505175700 23 194 0.0 0.0 0.00 0.00 0.00 42 1016.2
20260505175559 23 169 0.0 0.0 0.00 0.00 0.00 43 1016.2
20260505175500 23 144 0.0 0.0 0.00 0.00 0.00 44 1016.2
20260505175400 23 273 0.0 0.0 0.00 0.00 0.00 43 1016.0
20260505175259 23 102 0.0 0.0 0.00 0.00 0.00 43 1016.1
20260505175200 23 160 0.0 0.0 0.00 0.00 0.00 46 1016.1
20260505175100 23 150 0.0 0.0 0.00 0.00 0.00 45 1016.2
20260505174959 23 159 0.0 0.0 0.00 0.00 0.00 43 1016.1
20260505174853 23 180 0.0 0.0 0.00 0.00 0.00 44 1016.2
20260505174753 23 151 0.0 0.0 0.00 0.00 0.00 42 1016.2
20260505174653 23 153 0.0 0.0 0.00 0.00 0.00 43 1016.1
20260505174552 23 154 0.0 0.0 0.00 0.00 0.00 43 1016.1
20260505174452 23 229 0.0 0.0 0.00 0.00 0.00 43 1016.2
20260505174347 23 244 0.0 0.0 0.00 0.00 0.00 44 1016.1
20260505174246 22 130 0.0 0.0 0.00 0.00 0.00 44 1016.1
20260505174147 22 125 0.0 0.0 0.00 0.00 0.00 46 1015.9
20260505174045 22 146 0.0 0.0 0.00 0.00 0.00 46 1016.0
20260505173947 22 152 0.0 0.0 0.00 0.00 0.00 44 1015.9
20260505173841 22 128 0.0 0.0 0.00 0.00 0.00 45 1015.9
20260505173739 22 173 0.0 0.0 0.00 0.00 0.00 44 1016.0
20260505173637 22 151 0.0 0.0 0.00 0.00 0.00 44 1016.0
20260505173538 22 157 0.0 0.0 0.00 0.00 0.00 44 1016.0
20260505173437 22 149 0.0 0.0 0.00 0.00 0.00 44 1016.0
20260505173337 22 136 0.0 0.0 0.00 0.00 0.00 45 1016.0
20260505173239 22 175 0.0 0.0 0.00 0.00 0.00 44 1016.0
20260505173135 22 241 0.0 0.0 0.00 0.00 0.00 44 1016.0
20260505173037 22 150 0.0 0.0 0.00 0.00 0.00 44 1016.0
20260505172936 22 156 0.0 0.0 0.00 0.00 0.00 44 1016.1
20260505172833 22 149 0.0 0.0 0.00 0.00 0.00 45 1016.0
20260505172734 22 134 0.0 0.0 0.00 0.00 0.00 44 1016.1
20260505172634 22 236 0.0 0.0 0.00 0.00 0.00 47 1016.0
20260505172534 22 140 0.0 0.0 0.00 0.00 0.00 43 1016.0
20260505172433 22 149 0.0 0.0 0.00 0.00 0.00 45 1015.8
20260505172334 22 143 0.0 0.0 0.00 0.00 0.00 45 1016.0
20260505172233 22 126 0.0 0.0 0.00 0.00 0.00 45 1015.9
20260505172134 22 148 0.0 0.0 0.00 0.00 0.00 45 1015.9
20260505172031 22 126 0.0 0.0 0.00 0.00 0.00 45 1015.9
20260505171932 22 141 0.0 0.0 0.00 0.00 0.00 44 1015.9
20260505171832 23 146 0.0 0.0 0.00 0.00 0.00 45 1015.9
20260505171733 23 134 0.0 0.0 0.00 0.00 0.00 47 1016.0
20260505171627 23 137 0.0 0.0 0.00 0.00 0.00 47 1016.0
20260505171526 23 176 0.0 0.0 0.00 0.00 0.00 47 1016.0
20260505171426 23 141 0.0 0.0 0.00 0.00 0.00 46 1016.0
20260505171327 22 115 0.0 0.0 0.00 0.00 0.00 49 1016.0
20260505171226 22 178 0.0 0.0 0.00 0.00 0.00 47 1016.1
20260505171122 22 97 0.0 0.0 0.00 0.00 0.00 51 1016.0
20260505171020 22 137 0.0 0.0 0.00 0.00 0.00 49 1016.0
20260505170920 22 167 0.0 0.0 0.00 0.00 0.00 48 1016.0
20260505170820 22 163 0.0 0.0 0.00 0.00 0.00 47 1016.0
20260505170720 22 154 0.0 0.0 0.00 0.00 0.00 47 1016.0
20260505170621 22 140 0.0 0.0 0.00 0.00 0.00 48 1016.1
20260505170519 22 157 0.0 0.0 0.00 0.00 0.00 49 1016.2
20260505170419 22 126 0.0 0.0 0.00 0.00 0.00 49 1016.2
20260505170319 22 228 0.0 0.0 0.00 0.00 0.00 48 1016.1
20260505170217 22 117 0.0 0.0 0.00 0.00 0.00 49 1016.1
20260505170118 22 147 0.0 0.0 0.00 0.00 0.00 49 1016.2
20260505170016 22 157 0.0 0.0 0.00 0.00 0.00 50 1016.2
20260505165913 22 144 0.0 0.0 0.00 0.00 0.00 48 1016.2
20260505165813 22 135 0.0 0.0 0.00 0.00 0.00 51 1016.2
20260505165713 22 196 0.0 0.0 0.00 0.00 0.00 48 1016.2
20260505165614 22 196 0.0 0.0 0.00 0.00 0.00 48 1016.2
20260505165513 22 192 0.0 0.0 0.00 0.00 0.00 49 1016.2
20260505165415 22 157 0.0 0.0 0.00 0.00 0.00 49 1016.2
20260505165313 22 159 0.0 0.0 0.00 0.00 0.00 48 1016.3
20260505165214 22 132 0.0 0.0 0.00 0.00 0.00 50 1016.3
20260505165113 22 124 0.0 0.0 0.00 0.00 0.00 49 1016.3
20260505165014 22 198 0.0 0.0 0.00 0.00 0.00 48 1016.3
20260505164903 22 298 0.0 0.0 0.00 0.00 0.00 49 1016.3
20260505164804 22 163 0.0 0.0 0.00 0.00 0.00 49 1016.3
20260505164705 22 160 0.0 0.0 0.00 0.00 0.00 49 1016.3
20260505164603 22 161 0.0 0.0 0.00 0.00 0.00 51 1016.3
20260505164504 22 150 0.0 0.0 0.00 0.00 0.00 52 1016.3
20260505164404 22 102 0.0 0.0 0.00 0.00 0.00 50 1016.4
20260505164304 22 121 0.0 0.0 0.00 0.00 0.00 51 1016.4
20260505164205 22 203 0.0 0.0 0.00 0.00 0.00 50 1016.5
20260505164104 22 152 0.0 0.0 0.00 0.00 0.00 51 1016.5
20260505164005 22 120 0.0 0.0 0.00 0.00 0.00 48 1016.5
20260505163904 22 144 0.0 0.0 0.00 0.00 0.00 50 1016.5
20260505163805 22 164 0.0 0.0 0.00 0.00 0.00 50 1016.5
20260505163605 22 194 0.0 0.0 0.00 0.00 0.00 53 1016.6
20260505163504 22 195 0.0 0.0 0.00 0.00 0.00 51 1016.6
20260505163403 22 326 0.0 0.0 0.00 0.00 0.00 52 1016.7
20260505163304 22 163 0.0 0.0 0.00 0.00 0.00 49 1016.6
20260505163201 22 140 0.0 0.0 0.00 0.00 0.00 49 1016.6
20260505163102 22 134 0.0 0.0 0.00 0.00 0.00 49 1016.7
20260505163002 22 140 0.0 0.0 0.00 0.00 0.00 50 1016.6
20260505162901 22 176 0.0 0.0 0.00 0.00 0.00 49 1016.7
20260505162801 22 141 0.0 0.0 0.00 0.00 0.00 52 1016.7
20260505162701 22 167 0.0 0.0 0.00 0.00 0.00 50 1016.6
20260505162601 22 171 0.0 0.0 0.00 0.00 0.00 52 1016.6
20260505162501 22 248 0.0 0.0 0.00 0.00 0.00 53 1016.7
20260505162401 22 165 0.0 0.0 0.00 0.00 0.00 52 1016.6
20260505162301 22 182 0.0 0.0 0.00 0.00 0.00 53 1016.6
20260505162201 22 146 0.0 0.0 0.00 0.00 0.00 51 1016.7
20260505162102 22 145 0.0 0.0 0.00 0.00 0.00 52 1016.7
20260505162001 22 142 0.0 0.0 0.00 0.00 0.00 51 1016.7
20260505161902 22 217 0.0 0.0 0.00 0.00 0.00 52 1016.7
20260505161801 22 156 0.0 0.0 0.00 0.00 0.00 51 1016.7
20260505161701 22 177 0.0 0.0 0.00 0.00 0.00 50 1016.7
20260505161602 22 139 0.0 0.0 0.00 0.00 0.00 50 1016.6
20260505161501 22 163 0.0 0.0 0.00 0.00 0.00 50 1016.7
20260505161401 22 184 0.0 0.0 0.00 0.00 0.00 51 1016.7
20260505161302 22 272 0.0 0.0 0.00 0.00 0.00 51 1016.6
20260505161202 22 138 0.0 0.0 0.00 0.00 0.00 51 1016.6
20260505161102 21 145 0.0 0.0 0.00 0.00 0.00 51 1016.6
20260505161000 21 138 0.0 0.0 0.00 0.00 0.00 52 1016.7
20260505160900 21 155 0.0 0.0 0.00 0.00 0.00 52 1016.6
20260505160800 21 184 0.0 0.0 0.00 0.00 0.00 52 1016.7
20260505160659 21 194 0.0 0.0 0.00 0.00 0.00 53 1016.7
20260505160559 21 172 0.0 0.0 0.00 0.00 0.00 53 1016.7
20260505160459 21 95 0.0 0.0 0.00 0.00 0.00 53 1016.9
20260505160401 21 44 0.0 0.0 0.00 0.00 0.00 52 1016.9
20260505160257 21 162 0.0 0.0 0.00 0.00 0.00 53 1016.9
20260505160158 21 162 0.0 0.0 0.00 0.00 0.00 53 1016.9
20260505153357 21 172 0.0 0.0 0.00 0.00 0.00 51 1016.7
20260505153258 21 154 0.0 0.0 0.00 0.00 0.00 53 1016.9
20260505153157 21 150 0.0 0.0 0.00 0.00 0.00 52 1016.7
20260505153059 21 148 0.0 0.0 0.00 0.00 0.00 51 1016.6
20260505152954 21 168 0.0 0.0 0.00 0.00 0.00 51 1016.7
20260505152853 21 224 0.0 0.0 0.00 0.00 0.00 52 1016.7
20260505152754 21 145 0.0 0.0 0.00 0.00 0.00 53 1016.7
20260505152654 21 123 0.0 0.0 0.00 0.00 0.00 53 1016.6
20260505152554 21 173 0.0 0.0 0.00 0.00 0.00 51 1016.7
20260505152453 21 157 0.0 0.0 0.00 0.00 0.00 50 1016.7
20260505152355 21 180 0.0 0.0 0.00 0.00 0.00 51 1016.7
20260505152254 21 129 0.0 0.0 0.00 0.00 0.00 50 1016.7
20260505152155 21 199 1.6 9.7 0.00 0.00 0.00 49 1016.7
20260505152054 21 202 1.6 12.9 0.00 0.00 0.00 49 1016.7
20260505151954 21 200 1.6 12.9 0.00 0.00 0.00 50 1016.9
20260505151853 21 138 1.6 12.9 0.00 0.00 0.00 48 1016.7
20260505151753 21 123 3.2 12.9 0.00 0.00 0.00 49 1016.7
20260505151654 21 137 3.2 12.9 0.00 0.00 0.00 48 1016.6
20260505151555 21 211 3.2 12.9 0.00 0.00 0.00 51 1016.7
20260505151453 21 146 3.2 12.9 0.00 0.00 0.00 50 1016.6
20260505151355 21 203 3.2 12.9 0.00 0.00 0.00 49 1016.7
20260505151253 21 124 3.2 12.9 0.00 0.00 0.00 51 1016.7
20260505151154 21 174 1.6 12.9 0.00 0.00 0.00 51 1016.7
20260505151053 21 132 1.6 12.9 0.00 0.00 0.00 50 1016.7
20260505150953 21 184 1.6 12.9 0.00 0.00 0.00 49 1016.7
20260505150854 21 178 1.6 12.9 0.00 0.00 0.00 48 1016.7
20260505150753 21 178 0.0 12.9 0.00 0.00 0.00 47 1016.7
20260505150653 21 171 0.0 12.9 0.00 0.00 0.00 48 1016.7
20260505150553 21 161 0.0 0.0 0.00 0.00 0.00 50 1016.7
20260505150455 21 173 0.0 0.0 0.00 0.00 0.00 50 1016.7
20260505150354 21 191 0.0 0.0 0.00 0.00 0.00 52 1016.7
20260505150253 21 161 0.0 0.0 0.00 0.00 0.00 51 1016.7
20260505150154 21 163 0.0 0.0 0.00 0.00 0.00 53 1016.9
20260505140645 20 162 4.8 16.1 0.00 0.00 0.00 53 1016.4
20260505140546 20 171 4.8 9.7 0.00 0.00 0.00 54 1016.4
20260505140446 20 140 4.8 9.7 0.00 0.00 0.00 56 1016.3
20260505140347 20 140 4.8 9.7 0.00 0.00 0.00 54 1016.4
20260505140246 20 140 4.8 9.7 0.00 0.00 0.00 55 1016.4
20260505140146 20 177 4.8 9.7 0.00 0.00 0.00 56 1016.4
20260505130301 18 196 1.6 8.0 0.00 0.00 0.00 52 1016.1
20260505130202 18 315 1.6 8.0 0.00 0.00 0.00 52 1016.1
20260505125041 18 287 1.6 9.7 0.00 0.00 0.00 53 1016.1
20260505124942 18 287 1.6 9.7 0.00 0.00 0.00 53 1016.1
20260505124841 18 307 1.6 9.7 0.00 0.00 0.00 54 1016.0
20260505124739 18 176 1.6 9.7 0.00 0.00 0.00 52 1016.0
20260505124638 18 164 1.6 9.7 0.00 0.00 0.00 52 1016.0
20260505124536 18 243 1.6 4.8 0.00 0.00 0.00 53 1016.0
20260505124437 18 240 1.6 6.4 0.00 0.00 0.00 53 1016.1
20260505124335 18 240 1.6 6.4 0.00 0.00 0.00 55 1016.1
20260505124235 18 244 1.6 6.4 0.00 0.00 0.00 55 1016.0
20260505124136 18 244 1.6 6.4 0.00 0.00 0.00 56 1016.1
20260505124036 18 244 1.6 6.4 0.00 0.00 0.00 55 1016.0
20260505123936 18 244 1.6 6.4 0.00 0.00 0.00 55 1016.0
20260505123835 18 244 1.6 6.4 0.00 0.00 0.00 54 1016.0
20260505123732 18 244 1.6 6.4 0.00 0.00 0.00 55 1016.0
20260505123629 18 177 1.6 6.4 0.00 0.00 0.00 54 1015.9
20260505123530 18 179 1.6 6.4 0.00 0.00 0.00 55 1015.9
20260505123428 18 128 1.6 4.8 0.00 0.00 0.00 55 1016.0
20260505123327 18 129 1.6 4.8 0.00 0.00 0.00 55 1016.0
20260505123225 18 128 1.6 4.8 0.00 0.00 0.00 55 1016.0
20260505123123 18 128 1.6 4.8 0.00 0.00 0.00 56 1016.0
20260505123021 18 129 1.6 4.8 0.00 0.00 0.00 57 1016.0
20260505122921 18 129 1.6 4.8 0.00 0.00 0.00 56 1015.8
20260505122823 18 144 1.6 4.8 0.00 0.00 0.00 56 1016.0
20260505122722 18 137 1.6 4.8 0.00 0.00 0.00 56 1015.9
20260505122622 17 146 1.6 4.8 0.00 0.00 0.00 57 1015.9
20260505122523 17 227 1.6 4.8 0.00 0.00 0.00 57 1016.0
20260505122421 17 228 1.6 4.8 0.00 0.00 0.00 57 1016.0
20260505122315 17 207 1.6 4.8 0.00 0.00 0.00 55 1016.0
20260505122216 17 19 1.6 4.8 0.00 0.00 0.00 56 1016.0
20260505122117 17 18 1.6 4.8 0.00 0.00 0.00 56 1016.0
20260505122016 17 18 1.6 4.8 0.00 0.00 0.00 56 1016.0
20260505121914 17 22 1.6 4.8 0.00 0.00 0.00 57 1016.0
20260505121812 17 22 1.6 4.8 0.00 0.00 0.00 56 1016.0
20260505121713 17 49 1.6 4.8 0.00 0.00 0.00 56 1016.0
20260505121610 17 49 1.6 4.8 0.00 0.00 0.00 56 1016.0
20260505121510 17 44 1.6 4.8 0.00 0.00 0.00 56 1016.0
20260505121407 17 49 1.6 4.8 0.00 0.00 0.00 56 1016.0
20260505121301 17 50 1.6 4.8 0.00 0.00 0.00 56 1016.0
20260505121201 17 285 1.6 4.8 0.00 0.00 0.00 57 1016.0
20260505121102 17 262 1.6 4.8 0.00 0.00 0.00 57 1016.0
20260505121000 17 265 1.6 4.8 0.00 0.00 0.00 57 1015.9
20260505120859 17 265 1.6 4.8 0.00 0.00 0.00 56 1015.9
20260505120759 17 215 1.6 4.8 0.00 0.00 0.00 57 1015.9
20260505120659 17 255 1.6 4.8 0.00 0.00 0.00 58 1015.9
20260505120600 17 256 1.6 4.8 0.00 0.00 0.00 57 1015.8
20260505120457 17 255 0.0 4.8 0.00 0.00 0.00 58 1015.7
20260505120358 17 257 0.0 4.8 0.00 0.00 0.00 57 1015.8
20260505120257 17 257 0.0 4.8 0.00 0.00 0.00 57 1015.7
20260505120157 17 257 0.0 4.8 0.00 0.00 0.00 57 1015.8
20260505120059 17 196 0.0 0.0 0.00 0.00 0.00 57 1015.7
20260505115954 17 206 0.0 3.2 0.00 0.00 0.00 57 1015.7
20260505115855 16 206 0.0 3.2 0.00 0.00 0.00 58 1015.7
20260505115652 16 176 0.0 4.8 0.00 0.00 0.00 58 1015.7
20260505115551 16 176 0.0 4.8 0.00 0.00 0.00 59 1015.7
20260505115452 16 240 0.0 4.8 0.00 0.00 0.00 59 1015.7
20260505115351 16 240 1.6 4.8 0.00 0.00 0.00 59 1015.7
20260505115252 16 240 1.6 6.4 0.00 0.00 0.00 58 1015.7
20260505115152 16 240 1.6 6.4 0.00 0.00 0.00 58 1015.6
20260505115049 16 240 1.6 6.4 0.00 0.00 0.00 58 1015.8
20260505114948 16 240 1.6 6.4 0.00 0.00 0.00 58 1015.7
20260505114847 16 290 1.6 6.4 0.00 0.00 0.00 58 1015.8
20260505114748 16 291 1.6 6.4 0.00 0.00 0.00 60 1015.7
20260505114646 16 279 1.6 6.4 0.00 0.00 0.00 59 1015.8
20260505114541 16 277 1.6 6.4 0.00 0.00 0.00 59 1015.8
20260505114439 16 258 1.6 6.4 0.00 0.00 0.00 58 1015.7
20260505114340 16 245 1.6 6.4 0.00 0.00 0.00 59 1015.6
20260505114240 16 257 1.6 4.8 0.00 0.00 0.00 59 1015.8
20260505114139 16 252 1.6 4.8 0.00 0.00 0.00 60 1015.7
20260505114030 15 252 1.6 4.8 0.00 0.00 0.00 61 1015.7
20260505113929 15 252 1.6 4.8 0.00 0.00 0.00 59 1015.7
20260505113829 15 253 1.6 4.8 0.00 0.00 0.00 59 1015.6
20260505113731 15 255 1.6 4.8 0.00 0.00 0.00 60 1015.6
20260505113629 15 259 0.0 4.8 0.00 0.00 0.00 60 1015.6
20260505113524 15 259 0.0 4.8 0.00 0.00 0.00 60 1015.6
20260505113422 15 259 1.6 4.8 0.00 0.00 0.00 60 1015.7
20260505113324 15 273 0.0 4.8 0.00 0.00 0.00 60 1015.6
20260505113223 15 244 1.6 3.2 0.00 0.00 0.00 60 1015.6
20260505113123 15 244 1.6 6.4 0.00 0.00 0.00 61 1015.6
20260505113022 15 242 1.6 11.3 0.00 0.00 0.00 62 1015.6
20260505112922 15 269 1.6 11.3 0.00 0.00 0.00 62 1015.7
20260505112821 15 269 1.6 11.3 0.00 0.00 0.00 62 1015.6
20260505112721 15 269 1.6 11.3 0.00 0.00 0.00 61 1015.6
20260505112618 15 268 1.6 11.3 0.00 0.00 0.00 61 1015.7
20260505112508 15 236 1.6 11.3 0.00 0.00 0.00 62 1015.7
20260505112406 15 236 1.6 11.3 0.00 0.00 0.00 61 1015.6
20260505112308 14 230 1.6 11.3 0.00 0.00 0.00 62 1015.6
20260505112207 14 97 1.6 11.3 0.00 0.00 0.00 62 1015.6
20260505112107 14 261 1.6 11.3 0.00 0.00 0.00 61 1015.6
20260505112001 14 240 1.6 9.7 0.00 0.00 0.00 61 1015.7
20260505111902 14 261 1.6 8.0 0.00 0.00 0.00 63 1015.6
20260505111802 14 109 1.6 4.8 0.00 0.00 0.00 62 1015.7
20260505111701 14 109 1.6 4.8 0.00 0.00 0.00 62 1015.7
20260505111601 14 109 1.6 8.0 0.00 0.00 0.00 62 1015.7
20260505111456 14 109 1.6 8.0 0.00 0.00 0.00 63 1015.6
20260505111355 14 109 1.6 8.0 0.00 0.00 0.00 62 1015.6
20260505111256 14 99 1.6 8.0 0.00 0.00 0.00 62 1015.6
20260505111155 14 97 1.6 8.0 0.00 0.00 0.00 62 1015.4
20260505111056 13 104 1.6 8.0 0.00 0.00 0.00 62 1015.6
20260505110950 13 91 1.6 8.0 0.00 0.00 0.00 62 1015.5
20260505110850 13 91 1.6 8.0 0.00 0.00 0.00 64 1015.6
20260505110749 13 163 1.6 8.0 0.00 0.00 0.00 63 1015.5
20260505110648 13 163 1.6 8.0 0.00 0.00 0.00 64 1015.5
20260505110546 13 187 1.6 6.4 0.00 0.00 0.00 64 1015.6
20260505110441 13 187 1.6 6.4 0.00 0.00 0.00 64 1015.6
20260505110339 13 187 1.6 6.4 0.00 0.00 0.00 65 1015.6
20260505110240 13 187 1.6 6.4 0.00 0.00 0.00 64 1015.5
20260505110140 13 189 1.6 6.4 0.00 0.00 0.00 64 1015.6
20260505102140 12 183 4.8 16.1 0.00 0.00 0.00 67 1015.4
20260505102039 12 167 4.8 16.1 0.00 0.00 0.00 67 1015.3
20260505101939 12 151 4.8 16.1 0.00 0.00 0.00 67 1015.3
20260505101839 12 151 4.8 16.1 0.00 0.00 0.00 67 1015.1
20260505101738 12 165 4.8 16.1 0.00 0.00 0.00 67 1015.1
20260505101637 12 138 4.8 16.1 0.00 0.00 0.00 67 1015.1
20260505101535 12 138 6.4 16.1 0.00 0.00 0.00 67 1015.1
20260505101434 12 118 4.8 16.1 0.00 0.00 0.00 66 1015.3
20260505101327 12 170 4.8 16.1 0.00 0.00 0.00 67 1015.1
20260505101227 12 153 4.8 11.3 0.00 0.00 0.00 66 1015.1
20260505101128 12 164 4.8 11.3 0.00 0.00 0.00 66 1015.3
20260505101027 12 160 4.8 11.3 0.00 0.00 0.00 66 1015.3
20260505100928 12 151 4.8 11.3 0.00 0.00 0.00 66 1015.3
20260505100820 12 140 4.8 11.3 0.00 0.00 0.00 66 1015.1
20260505100718 13 126 4.8 11.3 0.00 0.00 0.00 66 1015.3
20260505100619 13 150 4.8 11.3 0.00 0.00 0.00 66 1015.3
20260505100521 13 140 4.8 11.3 0.00 0.00 0.00 66 1015.3
20260505100418 13 141 4.8 11.3 0.00 0.00 0.00 66 1015.3
20260505100317 13 146 4.8 11.3 0.00 0.00 0.00 66 1015.3
20260505100214 13 137 3.2 11.3 0.00 0.00 0.00 66 1015.3
20260505100115 13 114 3.2 11.3 0.00 0.00 0.00 66 1015.3
20260505100014 13 115 3.2 11.3 0.00 0.00 0.00 66 1015.3
20260505095911 13 115 4.8 11.3 0.00 0.00 0.00 66 1015.3
20260505095805 13 95 4.8 11.3 0.00 0.00 0.00 65 1015.3
20260505095705 13 133 4.8 9.7 0.00 0.00 0.00 65 1015.3
20260505095606 13 132 4.8 14.5 0.00 0.00 0.00 65 1015.1
20260505095505 13 174 4.8 14.5 0.00 0.00 0.00 65 1015.3
20260505095405 12 170 4.8 14.5 0.00 0.00 0.00 66 1015.3
20260505095254 13 124 4.8 14.5 0.00 0.00 0.00 66 1015.1
20260505095155 13 123 4.8 14.5 0.00 0.00 0.00 66 1015.1
20260505095055 13 136 6.4 14.5 0.00 0.00 0.00 65 1015.3
20260505094956 13 166 6.4 14.5 0.00 0.00 0.00 66 1015.1
20260505094855 13 122 6.4 14.5 0.00 0.00 0.00 66 1015.1
20260505094751 13 130 6.4 14.5 0.00 0.00 0.00 66 1015.1
20260505094651 13 228 6.4 14.5 0.00 0.00 0.00 66 1015.1
20260505094551 13 129 6.4 14.5 0.00 0.00 0.00 66 1015.1
20260505094452 13 131 6.4 14.5 0.00 0.00 0.00 66 1015.3
20260505094349 13 111 6.4 14.5 0.00 0.00 0.00 65 1015.3
20260505094245 13 155 6.4 14.5 0.00 0.00 0.00 65 1015.1
20260505094144 13 136 4.8 12.9 0.00 0.00 0.00 65 1015.3
20260505094044 13 138 4.8 9.7 0.00 0.00 0.00 65 1015.3
20260505093943 13 141 4.8 9.7 0.00 0.00 0.00 65 1015.4
20260505093844 13 162 4.8 9.7 0.00 0.00 0.00 64 1015.3
20260505093733 13 161 3.2 9.7 0.00 0.00 0.00 64 1015.3
20260505093634 13 162 3.2 9.7 0.00 0.00 0.00 64 1015.3
20260505093533 13 170 3.2 17.7 0.00 0.00 0.00 64 1015.3
20260505093433 13 134 3.2 17.7 0.00 0.00 0.00 64 1015.3
20260505093334 13 140 3.2 17.7 0.00 0.00 0.00 63 1015.3
20260505093230 13 138 3.2 17.7 0.00 0.00 0.00 63 1015.3
20260505093127 13 146 3.2 17.7 0.00 0.00 0.00 63 1015.3
20260505093028 13 181 3.2 17.7 0.00 0.00 0.00 63 1015.3
20260505092927 13 149 3.2 17.7 0.00 0.00 0.00 63 1015.1
20260505092827 13 149 3.2 17.7 0.00 0.00 0.00 63 1015.3
20260505092727 13 149 3.2 17.7 0.00 0.00 0.00 63 1015.1
20260505092625 13 153 3.2 17.7 0.00 0.00 0.00 63 1015.3
20260505092525 13 140 3.2 11.3 0.00 0.00 0.00 63 1015.1
20260505092423 13 112 3.2 11.3 0.00 0.00 0.00 62 1015.3
20260505092322 13 108 3.2 11.3 0.00 0.00 0.00 62 1015.1
20260505092211 13 94 3.2 11.3 0.00 0.00 0.00 62 1015.3
20260505092112 13 88 3.2 11.3 0.00 0.00 0.00 62 1015.1
20260505092010 13 153 3.2 8.0 0.00 0.00 0.00 62 1015.3
20260505091912 13 153 3.2 8.0 0.00 0.00 0.00 62 1015.3
20260505091812 13 153 3.2 9.7 0.00 0.00 0.00 62 1015.3
20260505091708 13 153 3.2 9.7 0.00 0.00 0.00 62 1015.3
20260505091605 13 155 3.2 9.7 0.00 0.00 0.00 62 1015.3
20260505091506 13 158 3.2 9.7 0.00 0.00 0.00 62 1015.3
20260505091405 13 117 3.2 9.7 0.00 0.00 0.00 62 1015.3
20260505091306 13 93 3.2 9.7 0.00 0.00 0.00 62 1015.1
20260505091202 13 94 3.2 9.7 0.00 0.00 0.00 62 1015.3
20260505091059 13 148 3.2 9.7 0.00 0.00 0.00 62 1015.1
20260505091000 13 149 3.2 9.7 0.00 0.00 0.00 62 1015.0
20260505090901 13 169 3.2 9.7 0.00 0.00 0.00 62 1015.0
20260505090759 13 290 3.2 9.7 0.00 0.00 0.00 62 1015.1
20260505090651 14 220 3.2 9.7 0.00 0.00 0.00 62 1015.1
20260505090551 14 154 1.6 9.7 0.00 0.00 0.00 62 1015.1
20260505090452 14 159 1.6 9.7 0.00 0.00 0.00 62 1015.1
20260505090352 14 160 1.6 9.7 0.00 0.00 0.00 61 1015.1
20260505090250 14 161 1.6 9.7 0.00 0.00 0.00 62 1015.1
20260505090148 14 152 1.6 8.0 0.00 0.00 0.00 62 1015.1
20260505090047 14 156 1.6 6.4 0.00 0.00 0.00 61 1015.0
20260505085946 14 162 1.6 6.4 0.00 0.00 0.00 61 1015.1
20260505085845 14 218 1.6 6.4 0.00 0.00 0.00 61 1015.1
20260505085744 14 218 1.6 6.4 0.00 0.00 0.00 61 1015.1
20260505085636 14 218 1.6 6.4 0.00 0.00 0.00 61 1015.1
20260505085537 14 133 1.6 6.4 0.00 0.00 0.00 61 1015.1
20260505085438 14 133 3.2 6.4 0.00 0.00 0.00 61 1015.0
20260505085337 14 126 3.2 9.7 0.00 0.00 0.00 61 1015.0
20260505085237 14 126 3.2 9.7 0.00 0.00 0.00 61 1015.1
20260505085129 14 126 3.2 9.7 0.00 0.00 0.00 61 1015.0
20260505085028 14 86 3.2 9.7 0.00 0.00 0.00 61 1015.0
20260505084930 14 25 3.2 9.7 0.00 0.00 0.00 61 1015.1
20260505084829 14 25 3.2 9.7 0.00 0.00 0.00 61 1015.0
20260505084727 14 22 3.2 9.7 0.00 0.00 0.00 61 1015.0
20260505084624 14 155 3.2 9.7 0.00 0.00 0.00 61 1015.0
20260505084524 14 155 3.2 9.7 0.00 0.00 0.00 61 1014.9
20260505084422 14 124 3.2 9.7 0.00 0.00 0.00 61 1015.0
20260505084324 14 173 3.2 9.7 0.00 0.00 0.00 61 1015.0
20260505084221 14 177 3.2 9.7 0.00 0.00 0.00 61 1014.9
20260505084117 14 124 3.2 9.7 0.00 0.00 0.00 61 1014.8
20260505084016 14 126 3.2 9.7 0.00 0.00 0.00 61 1014.8
20260505083916 14 186 3.2 9.7 0.00 0.00 0.00 61 1014.7
20260505083814 14 165 3.2 9.7 0.00 0.00 0.00 61 1014.7
20260505083715 13 172 3.2 9.7 0.00 0.00 0.00 62 1014.7
20260505083605 13 157 3.2 9.7 0.00 0.00 0.00 62 1014.8
20260505083504 13 49 3.2 9.7 0.00 0.00 0.00 62 1014.7
20260505083404 13 67 3.2 9.7 0.00 0.00 0.00 62 1014.7
20260505083306 13 177 3.2 9.7 0.00 0.00 0.00 62 1014.7
20260505083206 13 191 3.2 9.7 0.00 0.00 0.00 63 1014.8
20260505083059 13 211 3.2 9.7 0.00 0.00 0.00 62 1014.8
20260505082959 13 212 4.8 9.7 0.00 0.00 0.00 63 1014.8
20260505082859 13 205 4.8 9.7 0.00 0.00 0.00 62 1014.7
20260505082759 13 209 4.8 11.3 0.00 0.00 0.00 63 1014.8
20260505082659 13 120 4.8 16.1 0.00 0.00 0.00 63 1014.7
20260505082554 13 139 4.8 16.1 0.00 0.00 0.00 63 1014.8
20260505082453 13 105 4.8 16.1 0.00 0.00 0.00 63 1014.7
20260505082353 13 105 4.8 16.1 0.00 0.00 0.00 63 1014.8
20260505082252 13 150 4.8 16.1 0.00 0.00 0.00 63 1014.7
20260505082153 13 134 4.8 16.1 0.00 0.00 0.00 63 1014.7
20260505082042 13 186 4.8 16.1 0.00 0.00 0.00 63 1014.8
20260505081942 13 188 4.8 16.1 0.00 0.00 0.00 63 1014.8
20260505081844 13 157 4.8 16.1 0.00 0.00 0.00 62 1014.8
20260505081743 13 165 3.2 16.1 0.00 0.00 0.00 62 1014.8
20260505081643 13 134 3.2 11.3 0.00 0.00 0.00 62 1014.7
20260505081539 13 107 3.2 11.3 0.00 0.00 0.00 62 1014.7
20260505081439 13 135 3.2 11.3 0.00 0.00 0.00 62 1014.7
20260505081339 13 135 3.2 11.3 0.00 0.00 0.00 62 1014.7
20260505081239 13 147 3.2 11.3 0.00 0.00 0.00 62 1014.7
20260505081138 13 148 3.2 11.3 0.00 0.00 0.00 62 1014.7
20260505081032 14 155 3.2 9.7 0.00 0.00 0.00 61 1014.7
20260505080931 14 139 4.8 9.7 0.00 0.00 0.00 61 1014.7
20260505080831 14 140 4.8 9.7 0.00 0.00 0.00 61 1014.7
20260505080732 14 140 4.8 9.7 0.00 0.00 0.00 61 1014.7
20260505080632 14 140 4.8 9.7 0.00 0.00 0.00 61 1014.7
20260505080524 14 138 4.8 9.7 0.00 0.00 0.00 61 1014.7
20260505080421 14 138 4.8 9.7 0.00 0.00 0.00 60 1014.8
20260505080321 14 120 4.8 9.7 0.00 0.00 0.00 60 1014.7
20260505080221 14 146 4.8 9.7 0.00 0.00 0.00 60 1014.7
20260505080122 15 134 4.8 9.7 0.00 0.00 0.00 59 1014.7
20260505080015 15 164 3.2 9.7 0.00 0.00 0.00 59 1014.7
20260505075914 15 153 3.2 9.7 0.00 0.00 0.00 59 1014.7
20260505075816 15 85 4.8 17.7 0.00 0.00 0.00 59 1014.6
20260505075716 15 151 4.8 17.7 0.00 0.00 0.00 58 1014.7
20260505075615 15 151 4.8 17.7 0.00 0.00 0.00 58 1014.6
20260505075511 15 151 4.8 17.7 0.00 0.00 0.00 58 1014.5
20260505075411 15 151 4.8 17.7 0.00 0.00 0.00 58 1014.6
20260505075311 15 141 4.8 17.7 0.00 0.00 0.00 58 1014.6
20260505075212 15 172 4.8 17.7 0.00 0.00 0.00 58 1014.6
20260505075110 15 175 4.8 17.7 0.00 0.00 0.00 58 1014.5
20260505075000 15 153 4.8 17.7 0.00 0.00 0.00 57 1014.5
20260505074859 15 178 4.8 17.7 0.00 0.00 0.00 57 1014.5
20260505074759 15 140 4.8 12.9 0.00 0.00 0.00 57 1014.5
20260505074659 15 127 4.8 12.9 0.00 0.00 0.00 57 1014.5
20260505074559 15 169 4.8 12.9 0.00 0.00 0.00 57 1014.5
20260505074455 15 132 4.8 12.9 0.00 0.00 0.00 57 1014.5
20260505074355 15 132 4.8 12.9 0.00 0.00 0.00 57 1014.4
20260505074256 15 159 4.8 12.9 0.00 0.00 0.00 57 1014.4
20260505074155 15 144 4.8 12.9 0.00 0.00 0.00 57 1014.5
20260505074054 15 171 3.2 12.9 0.00 0.00 0.00 57 1014.5
20260505073956 15 170 3.2 12.9 0.00 0.00 0.00 57 1014.4
20260505073855 15 171 4.8 12.9 0.00 0.00 0.00 57 1014.4
20260505073754 15 171 4.8 12.9 0.00 0.00 0.00 57 1014.3
20260505073652 15 287 4.8 12.9 0.00 0.00 0.00 57 1014.3
20260505073553 15 96 4.8 12.9 0.00 0.00 0.00 56 1014.3
20260505073452 15 146 4.8 12.9 0.00 0.00 0.00 56 1014.3
20260505073353 15 62 4.8 12.9 0.00 0.00 0.00 56 1014.2
20260505073253 15 24 4.8 12.9 0.00 0.00 0.00 56 1014.2
20260505073152 15 38 4.8 12.9 0.00 0.00 0.00 57 1014.3
20260505073052 15 119 4.8 12.9 0.00 0.00 0.00 57 1014.2
20260505072953 15 123 4.8 12.9 0.00 0.00 0.00 57 1014.2
20260505072854 15 60 4.8 12.9 0.00 0.00 0.00 57 1014.2
20260505072749 15 164 4.8 12.9 0.00 0.00 0.00 56 1014.1
20260505072648 15 355 4.8 12.9 0.00 0.00 0.00 56 1014.2
20260505072548 15 76 4.8 12.9 0.00 0.00 0.00 56 1014.3
20260505072448 15 185 3.2 12.9 0.00 0.00 0.00 56 1014.2
20260505072347 15 61 4.8 12.9 0.00 0.00 0.00 56 1014.3
20260505072243 15 260 4.8 12.9 0.00 0.00 0.00 56 1014.2
20260505072140 15 286 4.8 11.3 0.00 0.00 0.00 56 1014.2
20260505072040 16 173 4.8 11.3 0.00 0.00 0.00 56 1014.2
20260505071939 16 5 4.8 14.5 0.00 0.00 0.00 56 1014.1
20260505071839 16 77 4.8 14.5 0.00 0.00 0.00 56 1014.2
20260505071738 16 134 4.8 14.5 0.00 0.00 0.00 56 1014.1
20260505071640 16 97 4.8 17.7 0.00 0.00 0.00 56 1014.2
20260505071538 16 145 6.4 17.7 0.00 0.00 0.00 56 1014.2
20260505071437 16 35 4.8 17.7 0.00 0.00 0.00 56 1014.2
20260505071338 16 161 6.4 17.7 0.00 0.00 0.00 56 1014.1
20260505071236 16 290 6.4 17.7 0.00 0.00 0.00 56 1014.0
20260505071138 16 84 6.4 17.7 0.00 0.00 0.00 56 1014.1
20260505071035 16 165 4.8 17.7 0.00 0.00 0.00 56 1014.1
20260505070934 16 42 4.8 17.7 0.00 0.00 0.00 56 1014.2
20260505070835 16 159 4.8 17.7 0.00 0.00 0.00 56 1014.2
20260505070735 16 296 4.8 17.7 0.00 0.00 0.00 56 1014.3
20260505070634 16 331 4.8 12.9 0.00 0.00 0.00 55 1014.1
20260505070535 16 350 4.8 12.9 0.00 0.00 0.00 56 1014.2
20260505070433 16 266 4.8 12.9 0.00 0.00 0.00 56 1014.2
20260505070332 16 165 4.8 12.9 0.00 0.00 0.00 55 1014.2
20260505070230 16 140 4.8 14.5 0.00 0.00 0.00 55 1014.3
20260505070132 16 158 4.8 14.5 0.00 0.00 0.00 55 1014.3
20260505070025 16 150 4.8 14.5 0.00 0.00 0.00 55 1014.2
20260505065926 16 70 4.8 14.5 0.00 0.00 0.00 55 1014.3
20260505065826 16 101 4.8 14.5 0.00 0.00 0.00 55 1014.3
20260505065726 16 89 4.8 14.5 0.00 0.00 0.00 55 1014.3
20260505065625 16 163 4.8 14.5 0.00 0.00 0.00 55 1014.3
20260505065521 16 182 4.8 14.5 0.00 0.00 0.00 55 1014.3
20260505065421 16 184 4.8 14.5 0.00 0.00 0.00 55 1014.3
20260505065320 16 116 6.4 16.1 0.00 0.00 0.00 55 1014.3
20260505065222 16 120 6.4 16.1 0.00 0.00 0.00 55 1014.2
20260505065119 16 198 6.4 16.1 0.00 0.00 0.00 55 1014.2
20260505065016 16 78 6.4 20.9 0.00 0.00 0.00 55 1014.2
20260505064913 16 154 6.4 20.9 0.00 0.00 0.00 55 1014.3
20260505064812 16 170 6.4 20.9 0.00 0.00 0.00 55 1014.3
20260505064714 16 69 6.4 20.9 0.00 0.00 0.00 55 1014.3
20260505064613 16 165 6.4 20.9 0.00 0.00 0.00 55 1014.3
20260505064513 16 115 8.0 20.9 0.00 0.00 0.00 55 1014.1
20260505064412 16 166 6.4 20.9 0.00 0.00 0.00 56 1014.3
20260505064312 15 149 6.4 20.9 0.00 0.00 0.00 56 1014.3
20260505064213 15 180 6.4 20.9 0.00 0.00 0.00 55 1014.2
20260505064113 15 142 4.8 16.1 0.00 0.00 0.00 55 1014.1
20260505064013 15 115 4.8 20.9 0.00 0.00 0.00 55 1014.2
20260505063913 15 293 6.4 20.9 0.00 0.00 0.00 55 1014.2
20260505063813 15 194 6.4 20.9 0.00 0.00 0.00 56 1014.2
20260505063710 15 125 4.8 20.9 0.00 0.00 0.00 56 1014.3
20260505063610 15 55 4.8 20.9 0.00 0.00 0.00 56 1014.3
20260505063510 15 159 4.8 20.9 0.00 0.00 0.00 56 1014.3
20260505063411 15 187 4.8 20.9 0.00 0.00 0.00 56 1014.2
20260505063307 15 134 4.8 20.9 0.00 0.00 0.00 56 1014.3
20260505063207 15 132 4.8 20.9 0.00 0.00 0.00 56 1014.2
20260505063107 15 244 6.4 20.9 0.00 0.00 0.00 56 1014.3
20260505063007 15 136 4.8 16.1 0.00 0.00 0.00 56 1014.3
20260505062906 15 170 4.8 16.1 0.00 0.00 0.00 56 1014.4
20260505062808 15 109 4.8 16.1 0.00 0.00 0.00 56 1014.3
20260505062706 15 157 4.8 16.1 0.00 0.00 0.00 56 1014.3
20260505062608 15 138 4.8 16.1 0.00 0.00 0.00 56 1014.4
20260505062508 15 145 4.8 16.1 0.00 0.00 0.00 56 1014.3
20260505062407 15 115 6.4 16.1 0.00 0.00 0.00 56 1014.2
20260505062308 15 229 4.8 16.1 0.00 0.00 0.00 56 1014.3
20260505062207 15 197 6.4 17.7 0.00 0.00 0.00 56 1014.4
20260505062106 15 188 6.4 17.7 0.00 0.00 0.00 56 1014.3
20260505062008 15 138 6.4 17.7 0.00 0.00 0.00 56 1014.4
20260505061904 15 158 6.4 17.7 0.00 0.00 0.00 56 1014.4
20260505061804 15 234 6.4 17.7 0.00 0.00 0.00 56 1014.3
20260505061706 15 204 4.8 17.7 0.00 0.00 0.00 56 1014.4
20260505061558 15 171 6.4 17.7 0.00 0.00 0.00 56 1014.4
20260505061459 15 174 6.4 17.7 0.00 0.00 0.00 56 1014.4
20260505061358 15 167 6.4 17.7 0.00 0.00 0.00 57 1014.4
20260505061300 15 178 4.8 17.7 0.00 0.00 0.00 56 1014.5
20260505061159 15 248 4.8 14.5 0.00 0.00 0.00 56 1014.5
20260505061053 15 149 4.8 14.5 0.00 0.00 0.00 56 1014.5
20260505060953 15 269 4.8 14.5 0.00 0.00 0.00 56 1014.5
20260505060852 15 355 4.8 14.5 0.00 0.00 0.00 56 1014.5
20260505060753 15 55 4.8 14.5 0.00 0.00 0.00 56 1014.5
20260505060653 15 141 4.8 14.5 0.00 0.00 0.00 57 1014.5
20260505060546 15 78 4.8 14.5 0.00 0.00 0.00 56 1014.5
20260505060446 15 147 4.8 17.7 0.00 0.00 0.00 56 1014.5
20260505060348 15 140 4.8 17.7 0.00 0.00 0.00 56 1014.4
20260505060245 15 159 4.8 17.7 0.00 0.00 0.00 56 1014.5
20260505060144 15 163 4.8 17.7 0.00 0.00 0.00 56 1014.5
20260505060046 15 136 4.8 17.7 0.00 0.00 0.00 56 1014.5
20260505055945 15 213 4.8 17.7 0.00 0.00 0.00 56 1014.4
20260505055845 15 98 4.8 17.7 0.00 0.00 0.00 56 1014.5
20260505055745 15 140 4.8 17.7 0.00 0.00 0.00 56 1014.6
20260505055645 15 130 4.8 17.7 0.00 0.00 0.00 56 1014.5
20260505055544 15 109 4.8 17.7 0.00 0.00 0.00 56 1014.5
20260505055445 15 135 4.8 12.9 0.00 0.00 0.00 56 1014.5
20260505055344 15 88 6.4 14.5 0.00 0.00 0.00 56 1014.5
20260505055245 15 146 6.4 16.1 0.00 0.00 0.00 56 1014.6
20260505055145 15 133 6.4 16.1 0.00 0.00 0.00 56 1014.6
20260505055044 15 158 6.4 16.1 0.00 0.00 0.00 56 1014.7
20260505054946 15 341 6.4 16.1 0.00 0.00 0.00 56 1014.6
20260505054835 15 113 6.4 16.1 0.00 0.00 0.00 56 1014.6
20260505054734 15 160 6.4 16.1 0.00 0.00 0.00 56 1014.6
20260505054636 15 167 6.4 16.1 0.00 0.00 0.00 55 1014.7
20260505054535 15 194 6.4 16.1 0.00 0.00 0.00 56 1014.6
20260505054435 15 144 6.4 16.1 0.00 0.00 0.00 55 1014.6
20260505054329 15 140 4.8 16.1 0.00 0.00 0.00 55 1014.5
20260505054228 15 172 4.8 14.5 0.00 0.00 0.00 55 1014.7
20260505054129 15 123 4.8 14.5 0.00 0.00 0.00 55 1014.6
20260505054026 15 149 4.8 14.5 0.00 0.00 0.00 55 1014.6
20260505053927 16 190 4.8 14.5 0.00 0.00 0.00 55 1014.5
20260505053823 16 135 4.8 14.5 0.00 0.00 0.00 55 1014.5
20260505053724 16 128 4.8 14.5 0.00 0.00 0.00 55 1014.5
20260505053622 16 169 4.8 16.1 0.00 0.00 0.00 55 1014.5
20260505053523 16 144 4.8 16.1 0.00 0.00 0.00 55 1014.5
20260505053422 16 148 4.8 16.1 0.00 0.00 0.00 55 1014.5
20260505053322 16 225 4.8 16.1 0.00 0.00 0.00 55 1014.5
20260505053222 16 157 4.8 16.1 0.00 0.00 0.00 55 1014.7
20260505053124 16 327 4.8 16.1 0.00 0.00 0.00 54 1014.5
20260505053022 16 180 4.8 16.1 0.00 0.00 0.00 55 1014.5
20260505052922 16 164 4.8 24.1 0.00 0.00 0.00 54 1014.5
20260505052822 16 171 4.8 24.1 0.00 0.00 0.00 54 1014.6
20260505052724 16 126 4.8 24.1 0.00 0.00 0.00 54 1014.6
20260505052623 16 126 4.8 24.1 0.00 0.00 0.00 54 1014.6
20260505052521 16 132 4.8 24.1 0.00 0.00 0.00 54 1014.6
20260505052419 16 131 4.8 24.1 0.00 0.00 0.00 54 1014.6
20260505052319 16 187 4.8 24.1 0.00 0.00 0.00 54 1014.6
20260505052218 16 140 4.8 24.1 0.00 0.00 0.00 54 1014.6
20260505052120 16 139 4.8 24.1 0.00 0.00 0.00 54 1014.7
20260505052020 16 142 4.8 24.1 0.00 0.00 0.00 54 1014.6
20260505051918 16 288 4.8 19.3 0.00 0.00 0.00 54 1014.6
20260505051820 16 128 4.8 19.3 0.00 0.00 0.00 54 1014.7
20260505051719 16 167 6.4 19.3 0.00 0.00 0.00 54 1014.7
20260505051618 16 179 6.4 19.3 0.00 0.00 0.00 53 1014.6
20260505051518 16 163 6.4 19.3 0.00 0.00 0.00 53 1014.6
20260505051420 16 228 6.4 19.3 0.00 0.00 0.00 53 1014.6
20260505051320 16 234 6.4 19.3 0.00 0.00 0.00 53 1014.6
20260505051219 16 187 6.4 19.3 0.00 0.00 0.00 54 1014.4
20260505051120 16 177 6.4 17.7 0.00 0.00 0.00 53 1014.6
20260505051019 16 74 6.4 17.7 0.00 0.00 0.00 53 1014.5
20260505050918 16 161 6.4 17.7 0.00 0.00 0.00 53 1014.5
20260505050820 16 168 8.0 17.7 0.00 0.00 0.00 53 1014.4
20260505050718 16 165 8.0 16.1 0.00 0.00 0.00 53 1014.3
20260505050620 16 137 8.0 17.7 0.00 0.00 0.00 53 1014.4
20260505050520 16 151 8.0 17.7 0.00 0.00 0.00 53 1014.3
20260505050418 16 309 8.0 17.7 0.00 0.00 0.00 53 1014.3
20260505050320 16 139 8.0 24.1 0.00 0.00 0.00 53 1014.4
20260505050219 16 158 8.0 24.1 0.00 0.00 0.00 53 1014.4
20260505050119 16 138 8.0 24.1 0.00 0.00 0.00 53 1014.3
20260505041710 16 165 6.4 17.7 0.00 0.00 0.00 52 1014.5
20260505041611 16 167 6.4 17.7 0.00 0.00 0.00 51 1014.5
20260505041512 16 180 4.8 17.7 0.00 0.00 0.00 51 1014.4
20260505041411 16 161 4.8 17.7 0.00 0.00 0.00 52 1014.4
20260505041310 16 105 4.8 17.7 0.00 0.00 0.00 51 1014.5
20260505041210 16 192 4.8 17.7 0.00 0.00 0.00 51 1014.6
20260505041110 17 117 6.4 17.7 0.00 0.00 0.00 51 1014.5
20260505041010 16 146 6.4 17.7 0.00 0.00 0.00 51 1014.6
20260505040910 16 169 6.4 17.7 0.00 0.00 0.00 51 1014.6
20260505040811 16 175 6.4 17.7 0.00 0.00 0.00 51 1014.7
20260505040711 16 209 6.4 17.7 0.00 0.00 0.00 51 1014.7
20260505040611 17 234 4.8 17.7 0.00 0.00 0.00 51 1014.6
20260505040511 17 144 6.4 17.7 0.00 0.00 0.00 51 1014.6
20260505040411 16 238 6.4 17.7 0.00 0.00 0.00 51 1014.6
20260505040311 16 131 6.4 17.7 0.00 0.00 0.00 51 1014.6
20260505040211 17 263 6.4 17.7 0.00 0.00 0.00 51 1014.7
20260505040107 16 214 6.4 17.7 0.00 0.00 0.00 51 1014.7
20260505040004 17 165 6.4 17.7 0.00 0.00 0.00 51 1014.7
20260505035903 16 117 6.4 17.7 0.00 0.00 0.00 52 1014.8
20260505035802 16 133 6.4 17.7 0.00 0.00 0.00 51 1014.7
20260505035703 16 96 6.4 17.7 0.00 0.00 0.00 51 1014.6
20260505035602 17 172 6.4 17.7 0.00 0.00 0.00 52 1014.7
20260505035503 17 188 6.4 17.7 0.00 0.00 0.00 51 1014.6
20260505035402 17 159 6.4 17.7 0.00 0.00 0.00 52 1014.7
20260505035304 17 137 6.4 17.7 0.00 0.00 0.00 52 1014.7
20260505035202 17 241 6.4 17.7 0.00 0.00 0.00 51 1014.7
20260505035103 17 148 6.4 17.7 0.00 0.00 0.00 52 1014.9
20260505035004 16 177 6.4 19.3 0.00 0.00 0.00 51 1014.8
20260505034903 17 269 6.4 19.3 0.00 0.00 0.00 51 1014.8
20260505034804 16 223 6.4 19.3 0.00 0.00 0.00 52 1014.8
20260505034703 16 204 6.4 19.3 0.00 0.00 0.00 52 1014.8
20260505034603 16 160 6.4 19.3 0.00 0.00 0.00 52 1014.9
20260505034504 16 182 6.4 19.3 0.00 0.00 0.00 52 1014.9
20260505034357 17 132 6.4 19.3 0.00 0.00 0.00 52 1014.8
20260505034256 17 113 6.4 19.3 0.00 0.00 0.00 52 1014.9
20260505034158 17 138 6.4 19.3 0.00 0.00 0.00 52 1014.8
20260505034058 17 161 6.4 19.3 0.00 0.00 0.00 52 1014.8
20260505033958 17 138 6.4 17.7 0.00 0.00 0.00 52 1014.8
20260505033858 17 163 6.4 20.9 0.00 0.00 0.00 52 1014.8
20260505033757 17 153 6.4 20.9 0.00 0.00 0.00 52 1014.7
20260505033656 17 167 6.4 20.9 0.00 0.00 0.00 52 1014.8
20260505033558 17 120 6.4 20.9 0.00 0.00 0.00 52 1014.8
20260505033457 17 165 6.4 20.9 0.00 0.00 0.00 51 1014.8
20260505033355 17 122 6.4 20.9 0.00 0.00 0.00 52 1014.7
20260505033255 17 162 4.8 20.9 0.00 0.00 0.00 52 1014.8
20260505033155 17 222 4.8 20.9 0.00 0.00 0.00 52 1014.9
20260505033055 17 157 4.8 20.9 0.00 0.00 0.00 51 1014.9
20260505032954 17 128 4.8 20.9 0.00 0.00 0.00 51 1014.8
20260505032854 17 120 4.8 12.9 0.00 0.00 0.00 52 1014.9
20260505032755 17 245 4.8 12.9 0.00 0.00 0.00 52 1015.0
20260505032650 17 146 4.8 14.5 0.00 0.00 0.00 51 1015.0
20260505032549 17 140 4.8 14.5 0.00 0.00 0.00 51 1015.1
20260505032446 17 143 4.8 14.5 0.00 0.00 0.00 51 1015.1
20260505032348 17 292 4.8 14.5 0.00 0.00 0.00 51 1015.1
20260505032247 17 151 6.4 22.5 0.00 0.00 0.00 51 1015.1
20260505032143 17 150 6.4 22.5 0.00 0.00 0.00 51 1015.1
20260505032040 17 132 6.4 22.5 0.00 0.00 0.00 51 1015.1
20260505031942 17 169 6.4 22.5 0.00 0.00 0.00 51 1015.3
20260505031841 17 141 6.4 22.5 0.00 0.00 0.00 51 1015.1
20260505031741 17 135 6.4 22.5 0.00 0.00 0.00 51 1015.3
20260505031635 17 185 6.4 22.5 0.00 0.00 0.00 51 1015.1
20260505031535 17 130 6.4 22.5 0.00 0.00 0.00 51 1015.1
20260505031435 17 153 6.4 22.5 0.00 0.00 0.00 51 1015.1
20260505031334 17 209 6.4 22.5 0.00 0.00 0.00 51 1015.1
20260505031231 17 181 6.4 24.1 0.00 0.00 0.00 51 1015.1
20260505031125 17 190 6.4 24.1 0.00 0.00 0.00 51 1015.3
20260505031025 17 142 8.0 24.1 0.00 0.00 0.00 51 1015.3
20260505030926 17 142 8.0 24.1 0.00 0.00 0.00 51 1015.1
20260505030825 17 118 6.4 24.1 0.00 0.00 0.00 52 1015.1
20260505030726 17 162 6.4 24.1 0.00 0.00 0.00 52 1015.1
20260505030624 17 137 6.4 24.1 0.00 0.00 0.00 52 1015.1
20260505030522 17 169 6.4 24.1 0.00 0.00 0.00 52 1015.1
20260505030422 17 82 8.0 24.1 0.00 0.00 0.00 51 1015.1
20260505030323 17 221 6.4 24.1 0.00 0.00 0.00 52 1015.1
20260505030223 17 157 6.4 20.9 0.00 0.00 0.00 52 1015.1
20260505030123 17 157 6.4 22.5 0.00 0.00 0.00 52 1015.1
20260505030023 17 105 6.4 22.5 0.00 0.00 0.00 51 1015.3
20260505025923 17 243 6.4 22.5 0.00 0.00 0.00 52 1015.3
20260505025823 17 161 6.4 22.5 0.00 0.00 0.00 52 1015.3
20260505025724 17 192 6.4 22.5 0.00 0.00 0.00 52 1015.3
20260505025623 17 167 6.4 22.5 0.00 0.00 0.00 52 1015.3
20260505025524 17 207 6.4 22.5 0.00 0.00 0.00 52 1015.1
20260505025422 17 159 6.4 22.5 0.00 0.00 0.00 52 1015.3
20260505025321 17 157 6.4 22.5 0.00 0.00 0.00 52 1015.3
20260505025220 17 142 6.4 22.5 0.00 0.00 0.00 52 1015.3
20260505025122 16 78 6.4 19.3 0.00 0.00 0.00 52 1015.3
20260505025018 16 191 8.0 24.1 0.00 0.00 0.00 52 1015.3
20260505024919 16 128 8.0 24.1 0.00 0.00 0.00 52 1015.3
20260505024819 16 121 8.0 24.1 0.00 0.00 0.00 52 1015.3
20260505024718 16 159 8.0 24.1 0.00 0.00 0.00 52 1015.3
20260505024619 16 195 8.0 24.1 0.00 0.00 0.00 52 1015.3
20260505024520 16 173 6.4 24.1 0.00 0.00 0.00 52 1015.3
20260505024419 16 160 6.4 24.1 0.00 0.00 0.00 52 1015.3
20260505024319 16 146 8.0 24.1 0.00 0.00 0.00 52 1015.3
20260505024214 16 190 8.0 24.1 0.00 0.00 0.00 51 1015.4
20260505024115 16 147 8.0 24.1 0.00 0.00 0.00 52 1015.3
20260505024015 16 164 6.4 20.9 0.00 0.00 0.00 52 1015.3
20260505023913 16 159 8.0 20.9 0.00 0.00 0.00 52 1015.3
20260505023812 16 185 8.0 20.9 0.00 0.00 0.00 52 1015.3